REU971 FMEE-LFPG

Flight info

Callsign REU971
Flight time N/A
Altitude 32000
Route UVENA UN304 DENLI/N0507F330 UN304 APKAK/N0510F320 UN304 EGSAP/N0502F340 UN304 DWA DCT NIDEG DCT ERDIR UT112 QHA UT445 TEXOK/N0497F350 UM308 KONET UG650 RASKA/N0499F340 T513 EGMEG/N0495F350 T513 JDW/N0497F340 M686 GIBEL/N0493F360 M686 OTEMO T55 KUNKI P751 METRU DCT LATAN DCT EKMIL/N0480F380 DCT VERUN DCT MIVKI DCT AOSTA DCT ORSUD DCT MOLUS DCT UNKIR DCT GIVRI/N0484F360 DCT TINIL
Aircraft B77W/H-SDE1E2E3FGHIJ2J3J4J5M1RWXY/LB1D1

Departure

Time 2026-04-21 23:40
Airport Roland Garros Airport (FMEE)

Arrival

Time N/A
Airport Charles de Gaulle International Airport (LFPG)
Time Latitude Longitude Altitude Speed Heading
2026-04-21 22:46 -20.89102 55.51305 123 ft 0 kts 207°
2026-04-21 23:27 -20.89101 55.51305 126 ft 0 kts 207°
2026-04-21 23:27 -20.89100 55.51306 126 ft 1 kts 207°
2026-04-21 23:27 -20.89087 55.51315 125 ft 2 kts 220°
2026-04-21 23:28 -20.89077 55.51326 124 ft 2 kts 233°
2026-04-21 23:28 -20.89069 55.51339 124 ft 2 kts 244°
2026-04-21 23:28 -20.89063 55.51354 124 ft 2 kts 256°
2026-04-21 23:28 -20.89061 55.51370 124 ft 2 kts 267°
2026-04-21 23:29 -20.89061 55.51386 124 ft 2 kts 278°
2026-04-21 23:29 -20.89064 55.51402 124 ft 2 kts 290°
2026-04-21 23:29 -20.89070 55.51416 124 ft 2 kts 298°
2026-04-21 23:29 -20.89077 55.51430 125 ft 2 kts 298°
2026-04-21 23:30 -20.89084 55.51444 125 ft 2 kts 297°
2026-04-21 23:30 -20.89086 55.51448 125 ft 0 kts 297°
2026-04-21 23:32 -20.89086 55.51447 125 ft 0 kts 297°
2026-04-21 23:33 -20.89084 55.51443 125 ft 1 kts 295°
2026-04-21 23:33 -20.89072 55.51415 124 ft 6 kts 294°
2026-04-21 23:33 -20.89045 55.51354 123 ft 11 kts 294°
2026-04-21 23:33 -20.89011 55.51276 120 ft 11 kts 295°
2026-04-21 23:34 -20.88960 55.51204 118 ft 12 kts 327°
2026-04-21 23:34 -20.88875 55.51166 112 ft 14 kts 340°
2026-04-21 23:34 -20.88787 55.51132 107 ft 11 kts 339°
2026-04-21 23:34 -20.88731 55.51074 105 ft 11 kts 298°
2026-04-21 23:35 -20.88706 55.51001 105 ft 10 kts 284°
2026-04-21 23:35 -20.88691 55.50925 104 ft 11 kts 281°
2026-04-21 23:35 -20.88674 55.50839 104 ft 12 kts 282°
2026-04-21 23:35 -20.88654 55.50742 103 ft 14 kts 282°
2026-04-21 23:36 -20.88633 55.50642 102 ft 13 kts 282°
2026-04-21 23:36 -20.88605 55.50549 100 ft 13 kts 302°
2026-04-21 23:36 -20.88581 55.50496 98 ft 6 kts 262°
2026-04-21 23:36 -20.88598 55.50486 98 ft 1 kts 151°
2026-04-21 23:37 -20.88601 55.50491 99 ft 0 kts 120°
2026-04-21 23:37 -20.88604 55.50502 99 ft 1 kts 102°
2026-04-21 23:37 -20.88604 55.50503 99 ft 0 kts 102°
2026-04-21 23:38 -20.88611 55.50540 100 ft 0 kts 101°
2026-04-21 23:39 -20.88614 55.50559 101 ft 14 kts 101°
2026-04-21 23:39 -20.88678 55.50883 104 ft 75 kts 102°
2026-04-21 23:39 -20.88835 55.51651 108 ft 133 kts 101°
2026-04-21 23:39 -20.89059 55.52786 160 ft 175 kts 101°
2026-04-21 23:40 -20.89306 55.54120 533 ft 190 kts 102°
2026-04-21 23:40 -20.89543 55.55444 1477 ft 178 kts 102°
2026-04-21 23:40 -20.89804 55.56807 1846 ft 201 kts 101°
2026-04-21 23:40 -20.89775 55.58277 2582 ft 194 kts 79°
2026-04-21 23:41 -20.89276 55.59619 3028 ft 203 kts 60°
2026-04-21 23:41 -20.88290 55.60761 3419 ft 215 kts 37°
2026-04-21 23:41 -20.86907 55.61380 3973 ft 220 kts 13°
2026-04-21 23:41 -20.85341 55.61329 4331 ft 236 kts 345°
2026-04-21 23:42 -20.83875 55.60495 4774 ft 246 kts 327°
2026-04-21 23:42 -20.82437 55.59414 5232 ft 256 kts 327°
2026-04-21 23:42 -20.80948 55.58277 5696 ft 267 kts 327°
2026-04-21 23:42 -20.79396 55.57090 6157 ft 278 kts 326°
2026-04-21 23:43 -20.77737 55.55925 6605 ft 286 kts 336°
2026-04-21 23:43 -20.75917 55.55064 7250 ft 288 kts 340°
2026-04-21 23:43 -20.74047 55.54262 7967 ft 289 kts 340°
2026-04-21 23:43 -20.72187 55.53463 8621 ft 291 kts 340°
2026-04-21 23:44 -20.70318 55.52653 9272 ft 294 kts 340°
2026-04-21 23:44 -20.68417 55.51826 9919 ft 296 kts 340°
2026-04-21 23:44 -20.66473 55.50982 10359 ft 308 kts 340°
2026-04-21 23:44 -20.64437 55.50097 10634 ft 325 kts 340°
2026-04-21 23:45 -20.62282 55.49162 10930 ft 342 kts 340°
2026-04-21 23:45 -20.57634 55.47143 11587 ft 374 kts 339°
2026-04-21 23:45 -20.55200 55.46081 11938 ft 388 kts 339°
2026-04-21 23:46 -20.52652 55.44967 12342 ft 401 kts 339°
2026-04-21 23:46 -20.50025 55.43819 12898 ft 409 kts 339°
2026-04-21 23:46 -20.47397 55.42671 13571 ft 412 kts 339°
2026-04-21 23:46 -20.44728 55.41505 14280 ft 414 kts 339°
2026-04-21 23:47 -20.42047 55.40335 14853 ft 420 kts 338°
2026-04-21 23:47 -20.39334 55.39151 15398 ft 426 kts 338°
2026-04-21 23:47 -20.36536 55.37930 16015 ft 431 kts 338°
2026-04-21 23:47 -20.33768 55.36723 16616 ft 434 kts 338°
2026-04-21 23:48 -20.30937 55.35490 17146 ft 440 kts 338°
2026-04-21 23:48 -20.28067 55.34239 17662 ft 446 kts 338°
2026-04-21 23:48 -20.25175 55.32980 18179 ft 451 kts 338°
2026-04-21 23:48 -20.22282 55.31721 18753 ft 454 kts 338°
2026-04-21 23:49 -20.19332 55.30437 19287 ft 458 kts 338°
2026-04-21 23:49 -20.16375 55.29151 19829 ft 462 kts 338°
2026-04-21 23:49 -20.13375 55.27847 20348 ft 466 kts 338°
2026-04-21 23:49 -20.10365 55.26539 20857 ft 470 kts 338°
2026-04-21 23:50 -20.07333 55.25222 21318 ft 475 kts 338°
2026-04-21 23:50 -20.04235 55.23877 21807 ft 479 kts 338°
2026-04-21 23:50 -20.01141 55.22534 22291 ft 483 kts 337°
2026-04-21 23:50 -19.98004 55.21173 22765 ft 486 kts 337°
2026-04-21 23:51 -19.94864 55.19812 23238 ft 490 kts 337°
2026-04-21 23:51 -19.91660 55.18423 23664 ft 494 kts 338°
2026-04-21 23:51 -19.88486 55.17048 24065 ft 499 kts 338°
2026-04-21 23:51 -19.85273 55.15656 24447 ft 504 kts 338°
2026-04-21 23:52 -19.81975 55.14229 24842 ft 508 kts 338°
2026-04-21 23:52 -19.78718 55.12820 25306 ft 510 kts 338°
2026-04-21 23:52 -19.75384 55.11379 25716 ft 514 kts 338°
2026-04-21 23:52 -19.72075 55.09948 26062 ft 519 kts 338°
2026-04-21 23:53 -19.68730 55.08503 26446 ft 523 kts 338°
2026-04-21 23:53 -19.65321 55.07030 26837 ft 527 kts 338°
2026-04-21 23:53 -19.61934 55.05569 27221 ft 530 kts 338°
2026-04-21 23:53 -19.58519 55.04095 27609 ft 534 kts 338°
2026-04-21 23:54 -19.55034 55.02593 27997 ft 537 kts 338°
2026-04-21 23:54 -19.51551 55.01091 28412 ft 540 kts 338°
2026-04-21 23:54 -19.48088 54.99599 28781 ft 543 kts 338°
2026-04-21 23:54 -19.44554 54.98077 29133 ft 547 kts 338°
2026-04-21 23:55 -19.41056 54.96571 29598 ft 547 kts 338°
2026-04-21 23:55 -19.37513 54.95046 29941 ft 547 kts 338°
2026-04-21 23:55 -19.33965 54.93521 29973 ft 547 kts 338°
2026-04-21 23:56 -19.26974 54.90516 29973 ft 540 kts 338°
2026-04-21 23:56 -19.19949 54.87500 29980 ft 544 kts 338°
2026-04-21 23:57 -19.12956 54.84499 29980 ft 540 kts 338°
2026-04-21 23:57 -19.05988 54.81513 29979 ft 543 kts 338°
2026-04-21 23:58 -18.99277 54.77912 29969 ft 541 kts 324°
2026-04-21 23:58 -18.93561 54.72737 29978 ft 540 kts 315°
2026-04-21 23:59 -18.88126 54.67317 29972 ft 540 kts 315°
2026-04-21 23:59 -18.82660 54.61872 29968 ft 540 kts 315°
2026-04-22 00:00 -18.77176 54.56417 29967 ft 539 kts 315°
2026-04-22 00:00 -18.71690 54.50967 30088 ft 546 kts 315°
2026-04-22 00:00 -18.68956 54.48253 30581 ft 545 kts 315°
2026-04-22 00:01 -18.66184 54.45504 31088 ft 543 kts 315°
2026-04-22 00:01 -18.63445 54.42805 31447 ft 540 kts 317°
2026-04-22 00:01 -18.60478 54.40390 31805 ft 537 kts 327°
2026-04-22 00:01 -18.57207 54.38417 31961 ft 540 kts 334°
2026-04-22 00:02 -18.53828 54.36760 31968 ft 539 kts 336°
2026-04-22 00:02 -18.47016 54.33534 31967 ft 537 kts 336°
2026-04-22 00:03 -18.40144 54.30287 31978 ft 537 kts 336°
2026-04-22 00:03 -18.33385 54.27095 31979 ft 535 kts 336°
2026-04-22 00:04 -18.26543 54.23867 31979 ft 536 kts 336°
2026-04-22 00:04 -18.19749 54.20663 31977 ft 533 kts 336°
2026-04-22 00:05 -18.12971 54.17470 31977 ft 533 kts 336°
2026-04-22 00:05 -18.06218 54.14281 31976 ft 531 kts 336°
2026-04-22 00:06 -17.99516 54.11094 31976 ft 531 kts 336°
2026-04-22 00:06 -17.92755 54.07883 31978 ft 532 kts 336°
2026-04-22 00:07 -17.86009 54.04683 31968 ft 530 kts 336°
2026-04-22 00:07 -17.79289 54.01498 31958 ft 530 kts 336°
2026-04-22 00:08 -17.72524 53.98294 31948 ft 531 kts 336°
2026-04-22 00:08 -17.65792 53.95109 31953 ft 531 kts 336°
2026-04-22 00:09 -17.59107 53.91949 31950 ft 527 kts 336°
2026-04-22 00:09 -17.52382 53.88773 31952 ft 531 kts 336°
2026-04-22 00:10 -17.45621 53.85581 31951 ft 529 kts 336°
2026-04-22 00:10 -17.38876 53.82401 31957 ft 531 kts 336°
2026-04-22 00:11 -17.32159 53.79236 31955 ft 531 kts 336°
2026-04-22 00:11 -17.25440 53.76072 31953 ft 528 kts 336°
2026-04-22 00:12 -17.18703 53.72903 31956 ft 531 kts 336°
2026-04-22 00:12 -17.11994 53.69750 31953 ft 528 kts 336°
2026-04-22 00:13 -17.05298 53.66605 31957 ft 527 kts 336°
2026-04-22 00:13 -16.98584 53.63454 31957 ft 529 kts 336°
2026-04-22 00:14 -16.91866 53.60303 31950 ft 528 kts 336°
2026-04-22 00:14 -16.85130 53.57148 31946 ft 530 kts 336°
2026-04-22 00:15 -16.78389 53.53991 31948 ft 529 kts 336°
2026-04-22 00:15 -16.71667 53.50847 31943 ft 529 kts 336°
2026-04-22 00:16 -16.64956 53.47709 31943 ft 529 kts 336°
2026-04-22 00:16 -16.58218 53.44562 31943 ft 530 kts 336°
2026-04-22 00:17 -16.51481 53.41418 31941 ft 529 kts 336°
2026-04-22 00:17 -16.44741 53.38274 31943 ft 530 kts 336°
2026-04-22 00:18 -16.37982 53.35124 31942 ft 530 kts 336°
2026-04-22 00:18 -16.31278 53.32002 31934 ft 530 kts 336°
2026-04-22 00:19 -16.24538 53.28866 31934 ft 528 kts 336°
2026-04-22 00:19 -16.17806 53.25736 31935 ft 529 kts 336°
2026-04-22 00:20 -16.11081 53.22612 31936 ft 527 kts 336°
2026-04-22 00:20 -16.04392 53.19506 31936 ft 529 kts 336°
2026-04-22 00:21 -15.97654 53.16381 31933 ft 527 kts 336°
2026-04-22 00:21 -15.90943 53.13270 31938 ft 527 kts 336°
2026-04-22 00:22 -15.84262 53.10175 31941 ft 527 kts 336°
2026-04-22 00:22 -15.77537 53.07062 31944 ft 526 kts 336°
2026-04-22 00:23 -15.70844 53.03966 31941 ft 526 kts 336°
2026-04-22 00:23 -15.64166 53.00879 31942 ft 525 kts 336°
2026-04-22 00:24 -15.57504 52.97802 31939 ft 525 kts 336°
2026-04-22 00:24 -15.50805 52.94710 31939 ft 524 kts 336°
2026-04-22 00:25 -15.44149 52.91640 31937 ft 525 kts 336°
2026-04-22 00:25 -15.37463 52.88559 31934 ft 522 kts 336°
2026-04-22 00:26 -15.30798 52.85489 31939 ft 522 kts 336°
2026-04-22 00:26 -15.24158 52.82433 31936 ft 522 kts 336°
2026-04-22 00:27 -15.17514 52.79377 31934 ft 522 kts 336°
2026-04-22 00:27 -15.10865 52.76321 31928 ft 522 kts 336°
2026-04-22 00:28 -15.04247 52.73281 31922 ft 522 kts 336°
2026-04-22 00:28 -14.97580 52.70221 31919 ft 522 kts 336°
2026-04-22 00:29 -14.90918 52.67165 31913 ft 523 kts 336°
2026-04-22 00:29 -14.84279 52.64122 31907 ft 520 kts 336°
2026-04-22 00:30 -14.77655 52.61088 31908 ft 519 kts 336°
2026-04-22 00:30 -14.71048 52.58064 31910 ft 518 kts 336°
2026-04-22 00:31 -14.64424 52.55033 31912 ft 520 kts 336°
2026-04-22 00:31 -14.57824 52.52016 31912 ft 518 kts 336°
2026-04-22 00:32 -14.51242 52.49009 31917 ft 517 kts 335°
2026-04-22 00:32 -14.44637 52.45994 31915 ft 517 kts 335°
2026-04-22 00:33 -14.38053 52.42990 31914 ft 515 kts 335°
2026-04-22 00:33 -14.31488 52.39997 31914 ft 515 kts 335°
2026-04-22 00:34 -14.24934 52.37010 31913 ft 512 kts 335°
2026-04-22 00:34 -14.18445 52.34055 31912 ft 513 kts 335°
2026-04-22 00:35 -14.11897 52.31075 31910 ft 512 kts 335°
2026-04-22 00:35 -14.05353 52.28099 31913 ft 512 kts 335°
2026-04-22 00:36 -13.98851 52.25144 31914 ft 509 kts 335°
2026-04-22 00:36 -13.92342 52.22187 31906 ft 510 kts 335°
2026-04-22 00:37 -13.85868 52.19248 31909 ft 509 kts 335°
2026-04-22 00:37 -13.79388 52.16308 31908 ft 509 kts 335°
2026-04-22 00:38 -13.72889 52.13361 31910 ft 508 kts 335°
2026-04-22 00:38 -13.66429 52.10434 31910 ft 508 kts 335°
2026-04-22 00:39 -13.59942 52.07497 31905 ft 509 kts 335°
2026-04-22 00:39 -13.53488 52.04576 31910 ft 505 kts 335°
2026-04-22 00:40 -13.47036 52.01658 31912 ft 505 kts 335°
2026-04-22 00:40 -13.40626 51.98760 31908 ft 503 kts 335°
2026-04-22 00:41 -13.34188 51.95851 31910 ft 504 kts 335°
2026-04-22 00:41 -13.27779 51.92957 31912 ft 503 kts 335°
2026-04-22 00:42 -13.21360 51.90060 31912 ft 502 kts 335°
2026-04-22 00:42 -13.14958 51.87173 31911 ft 501 kts 335°
2026-04-22 00:43 -13.08568 51.84293 31915 ft 502 kts 335°
2026-04-22 00:43 -13.02177 51.81414 31912 ft 500 kts 335°
2026-04-22 00:44 -12.95785 51.78536 31908 ft 501 kts 335°
2026-04-22 00:44 -12.89406 51.75665 31902 ft 500 kts 335°
2026-04-22 00:45 -12.82998 51.72783 31900 ft 499 kts 335°
2026-04-22 00:45 -12.76641 51.69926 31903 ft 501 kts 335°
2026-04-22 00:46 -12.70279 51.67068 31895 ft 498 kts 335°
2026-04-22 00:46 -12.63891 51.64200 31893 ft 499 kts 335°
2026-04-22 00:47 -12.57555 51.61357 31888 ft 497 kts 335°
2026-04-22 00:47 -12.51181 51.58498 31885 ft 497 kts 335°
2026-04-22 00:48 -12.44849 51.55660 31880 ft 497 kts 335°
2026-04-22 00:48 -12.38513 51.52821 31885 ft 495 kts 335°
2026-04-22 00:49 -12.32177 51.49983 31886 ft 495 kts 335°
2026-04-22 00:49 -12.25872 51.47160 31888 ft 495 kts 335°
2026-04-22 00:50 -12.19582 51.44345 31887 ft 494 kts 335°
2026-04-22 00:50 -12.13273 51.41523 31886 ft 493 kts 335°
2026-04-22 00:51 -12.07000 51.38719 31887 ft 493 kts 335°
2026-04-22 00:51 -12.00714 51.35912 31883 ft 492 kts 334°
2026-04-22 00:52 -11.94445 51.33114 31889 ft 491 kts 335°
2026-04-22 00:52 -11.88172 51.30315 31891 ft 491 kts 335°
2026-04-22 00:53 -11.81931 51.27533 31888 ft 487 kts 334°
2026-04-22 00:53 -11.75693 51.24753 31889 ft 489 kts 334°
2026-04-22 00:54 -11.69446 51.21970 31886 ft 487 kts 334°
2026-04-22 00:54 -11.63248 51.19211 31888 ft 488 kts 334°
2026-04-22 00:55 -11.57012 51.16437 31886 ft 485 kts 334°
2026-04-22 00:55 -11.47732 51.12310 31887 ft 486 kts 334°
2026-04-22 00:56 -11.41560 51.09568 31888 ft 482 kts 334°
2026-04-22 00:56 -11.35413 51.06837 31887 ft 481 kts 334°
2026-04-22 00:57 -11.29260 51.04105 31887 ft 480 kts 334°
2026-04-22 00:57 -11.23135 51.01387 31885 ft 479 kts 334°
2026-04-22 00:58 -11.17022 50.98676 31887 ft 479 kts 334°
2026-04-22 00:58 -11.10908 50.95965 31885 ft 476 kts 334°
2026-04-22 00:59 -11.04807 50.93261 31881 ft 477 kts 334°
2026-04-22 00:59 -10.98724 50.90567 31869 ft 476 kts 334°
2026-04-22 01:00 -10.92667 50.87885 31861 ft 476 kts 334°
2026-04-22 01:00 -10.86541 50.85173 31864 ft 478 kts 334°
2026-04-22 01:01 -10.80460 50.82484 31866 ft 476 kts 334°
2026-04-22 01:01 -10.74362 50.79787 31862 ft 476 kts 334°
2026-04-22 01:02 -10.68297 50.77105 31863 ft 476 kts 334°
2026-04-22 01:02 -10.62226 50.74417 31858 ft 475 kts 333°
2026-04-22 01:03 -10.56132 50.71722 31862 ft 476 kts 333°
2026-04-22 01:03 -10.50065 50.69049 31861 ft 476 kts 334°
2026-04-22 01:04 -10.43969 50.66363 31862 ft 476 kts 334°
2026-04-22 01:04 -10.37874 50.63678 31861 ft 474 kts 334°
2026-04-22 01:05 -10.31782 50.60993 31864 ft 476 kts 334°
2026-04-22 01:05 -10.25712 50.58320 31861 ft 475 kts 333°
2026-04-22 01:06 -10.19669 50.55658 31864 ft 474 kts 334°
2026-04-22 01:06 -10.13580 50.52977 31860 ft 475 kts 333°
2026-04-22 01:07 -10.07530 50.50315 31862 ft 474 kts 333°
2026-04-22 01:07 -10.01482 50.47655 31858 ft 473 kts 334°
2026-04-22 01:08 -9.95429 50.44992 31860 ft 472 kts 333°
2026-04-22 01:08 -9.89384 50.42332 31860 ft 475 kts 334°
2026-04-22 01:09 -9.83317 50.39664 31864 ft 473 kts 333°
2026-04-22 01:09 -9.77295 50.37017 31863 ft 474 kts 334°
2026-04-22 01:10 -9.71215 50.34346 31870 ft 473 kts 334°
2026-04-22 01:10 -9.65190 50.31700 31870 ft 472 kts 334°
2026-04-22 01:11 -9.59130 50.29039 31866 ft 473 kts 334°
2026-04-22 01:11 -9.53078 50.26384 31864 ft 472 kts 334°
2026-04-22 01:12 -9.47030 50.23730 31860 ft 473 kts 334°
2026-04-22 01:12 -9.40970 50.21073 31857 ft 474 kts 334°
2026-04-22 01:13 -9.34922 50.18422 31859 ft 473 kts 334°
2026-04-22 01:13 -9.28882 50.15775 31855 ft 474 kts 334°
2026-04-22 01:14 -9.22831 50.13125 31851 ft 472 kts 334°
2026-04-22 01:14 -9.16760 50.10467 31848 ft 474 kts 334°
2026-04-22 01:15 -9.10704 50.07816 31850 ft 473 kts 334°
2026-04-22 01:15 -9.04652 50.05168 31848 ft 474 kts 334°
2026-04-22 01:16 -8.98595 50.02520 31847 ft 473 kts 334°
2026-04-22 01:16 -8.92543 49.99874 31847 ft 475 kts 334°
2026-04-22 01:17 -8.86474 49.97221 31849 ft 474 kts 334°
2026-04-22 01:17 -8.80415 49.94574 31849 ft 475 kts 334°
2026-04-22 01:18 -8.74343 49.91922 31848 ft 474 kts 334°
2026-04-22 01:18 -8.68281 49.89276 31848 ft 474 kts 334°
2026-04-22 01:19 -8.62184 49.86615 31847 ft 474 kts 334°
2026-04-22 01:19 -8.56123 49.83971 31847 ft 475 kts 334°
2026-04-22 01:20 -8.50047 49.81321 31846 ft 474 kts 334°
2026-04-22 01:20 -8.43961 49.78668 31846 ft 475 kts 334°
2026-04-22 01:21 -8.37904 49.76028 31845 ft 476 kts 334°
2026-04-22 01:21 -8.31822 49.73379 31846 ft 475 kts 334°
2026-04-22 01:22 -8.25745 49.70732 31847 ft 474 kts 334°
2026-04-22 01:22 -8.19689 49.68095 31848 ft 475 kts 334°
2026-04-22 01:23 -8.13596 49.65444 31846 ft 476 kts 334°
2026-04-22 01:23 -8.07491 49.62788 31846 ft 476 kts 334°
2026-04-22 01:24 -8.01402 49.60139 31842 ft 476 kts 334°
2026-04-22 01:24 -7.95330 49.57499 31843 ft 475 kts 334°
2026-04-22 01:25 -7.89237 49.54851 31841 ft 475 kts 334°
2026-04-22 01:25 -7.83145 49.52204 31835 ft 477 kts 334°
2026-04-22 01:26 -7.77032 49.49549 31833 ft 476 kts 334°
2026-04-22 01:26 -7.70911 49.46891 31838 ft 477 kts 334°
2026-04-22 01:27 -7.64830 49.44251 31836 ft 477 kts 334°
2026-04-22 01:27 -7.58729 49.41604 31837 ft 476 kts 334°
2026-04-22 01:28 -7.52638 49.38961 31832 ft 476 kts 334°
2026-04-22 01:28 -7.46541 49.36317 31836 ft 476 kts 334°
2026-04-22 01:29 -7.40441 49.33672 31850 ft 477 kts 334°
2026-04-22 01:29 -7.34316 49.31018 31849 ft 477 kts 334°
2026-04-22 01:30 -7.28219 49.28376 31980 ft 475 kts 334°
2026-04-22 01:30 -7.25207 49.27072 32229 ft 474 kts 334°
2026-04-22 01:30 -7.22153 49.25749 32490 ft 474 kts 334°
2026-04-22 01:31 -7.19136 49.24442 32766 ft 472 kts 334°
2026-04-22 01:31 -7.16113 49.23133 33059 ft 471 kts 334°
2026-04-22 01:31 -7.13081 49.21820 33348 ft 469 kts 334°
2026-04-22 01:31 -7.10081 49.20522 33637 ft 468 kts 334°
2026-04-22 01:32 -7.07119 49.19239 33850 ft 469 kts 334°
2026-04-22 01:32 -7.04102 49.17934 33850 ft 469 kts 335°
2026-04-22 01:32 -6.98117 49.15344 33844 ft 467 kts 335°
2026-04-22 01:33 -6.92105 49.12743 33847 ft 469 kts 335°
2026-04-22 01:33 -6.86115 49.10153 33849 ft 469 kts 335°
2026-04-22 01:34 -6.80121 49.07561 33849 ft 468 kts 335°
2026-04-22 01:34 -6.74123 49.04968 33848 ft 468 kts 335°
2026-04-22 01:35 -6.68127 49.02378 33848 ft 468 kts 335°
2026-04-22 01:35 -6.62094 48.99771 33849 ft 469 kts 335°
2026-04-22 01:36 -6.56123 48.97192 33849 ft 468 kts 335°
2026-04-22 01:36 -6.50102 48.94593 33847 ft 469 kts 335°
2026-04-22 01:37 -6.44130 48.92014 33846 ft 468 kts 335°
2026-04-22 01:37 -6.38083 48.89405 33846 ft 470 kts 335°
2026-04-22 01:38 -6.32090 48.86820 33845 ft 470 kts 335°
2026-04-22 01:38 -6.26077 48.84226 33844 ft 469 kts 335°
2026-04-22 01:39 -6.20049 48.81626 33845 ft 469 kts 335°
2026-04-22 01:39 -6.14010 48.79023 33845 ft 471 kts 335°
2026-04-22 01:40 -6.08007 48.76436 33845 ft 471 kts 335°
2026-04-22 01:40 -6.01959 48.73829 33831 ft 472 kts 335°
2026-04-22 01:41 -5.95928 48.71231 33820 ft 471 kts 336°
2026-04-22 01:41 -5.89852 48.68614 33823 ft 472 kts 336°
2026-04-22 01:42 -5.83815 48.66014 33835 ft 473 kts 336°
2026-04-22 01:42 -5.77765 48.63410 33839 ft 474 kts 336°
2026-04-22 01:43 -5.71662 48.60783 33842 ft 476 kts 336°
2026-04-22 01:43 -5.65558 48.58157 33843 ft 474 kts 336°
2026-04-22 01:44 -5.59499 48.55550 33844 ft 476 kts 336°
2026-04-22 01:44 -5.53394 48.52924 33840 ft 478 kts 337°
2026-04-22 01:45 -5.47253 48.50284 33842 ft 479 kts 337°
2026-04-22 01:45 -5.41092 48.47635 33841 ft 480 kts 337°
2026-04-22 01:46 -5.34965 48.45002 33844 ft 479 kts 337°
2026-04-22 01:46 -5.28801 48.42353 33848 ft 484 kts 337°
2026-04-22 01:47 -5.22598 48.39688 33846 ft 483 kts 337°
2026-04-22 01:47 -5.16425 48.37037 33848 ft 484 kts 337°
2026-04-22 01:48 -5.10217 48.34371 33850 ft 487 kts 337°
2026-04-22 01:48 -5.03983 48.31694 33843 ft 485 kts 337°
2026-04-22 01:49 -4.97771 48.29028 33847 ft 486 kts 337°
2026-04-22 01:49 -4.91540 48.26354 33848 ft 486 kts 337°
2026-04-22 01:50 -4.85267 48.23751 33844 ft 485 kts 342°
2026-04-22 01:50 -4.78623 48.22583 33856 ft 485 kts 355°
2026-04-22 01:51 -4.71880 48.22119 33850 ft 486 kts 356°
2026-04-22 01:51 -4.65122 48.21513 33842 ft 485 kts 348°
2026-04-22 01:52 -4.58580 48.19770 33852 ft 485 kts 340°
2026-04-22 01:52 -4.52311 48.17244 33845 ft 485 kts 332°
2026-04-22 01:53 -4.46649 48.13586 33847 ft 485 kts 325°
2026-04-22 01:53 -4.41076 48.09752 33847 ft 485 kts 325°
2026-04-22 01:54 -4.35522 48.05931 33849 ft 485 kts 325°
2026-04-22 01:54 -4.29961 48.02105 33847 ft 485 kts 325°
2026-04-22 01:55 -4.24395 47.98275 33845 ft 485 kts 325°
2026-04-22 01:55 -4.18479 47.95026 33848 ft 486 kts 336°
2026-04-22 01:56 -4.12244 47.92349 33833 ft 485 kts 336°
2026-04-22 01:56 -4.05999 47.89675 33842 ft 488 kts 336°
2026-04-22 01:57 -3.99747 47.86997 33847 ft 488 kts 336°
2026-04-22 01:57 -3.93473 47.84308 33843 ft 486 kts 336°
2026-04-22 01:58 -3.87243 47.81638 33846 ft 487 kts 336°
2026-04-22 01:58 -3.81007 47.78966 33847 ft 486 kts 336°
2026-04-22 01:59 -3.74790 47.76301 33847 ft 486 kts 336°
2026-04-22 01:59 -3.68574 47.73638 33846 ft 486 kts 336°
2026-04-22 02:00 -3.62314 47.70956 33847 ft 486 kts 336°
2026-04-22 02:00 -3.56114 47.68300 33846 ft 486 kts 336°
2026-04-22 02:01 -3.49897 47.65638 33847 ft 485 kts 336°
2026-04-22 02:01 -3.43671 47.62971 33846 ft 485 kts 336°
2026-04-22 02:02 -3.37455 47.60310 33846 ft 484 kts 336°
2026-04-22 02:02 -3.31247 47.57652 33846 ft 485 kts 336°
2026-04-22 02:03 -3.25014 47.54984 33845 ft 484 kts 336°
2026-04-22 02:03 -3.18850 47.52346 33846 ft 484 kts 336°
2026-04-22 02:04 -3.09526 47.48356 33845 ft 484 kts 336°
2026-04-22 02:05 -3.03310 47.45696 33845 ft 485 kts 336°
2026-04-22 02:05 -2.97063 47.43024 33846 ft 486 kts 336°
2026-04-22 02:06 -2.90840 47.40362 33843 ft 485 kts 336°
2026-04-22 02:06 -2.84635 47.37708 33847 ft 485 kts 336°
2026-04-22 02:07 -2.78411 47.35046 33846 ft 484 kts 336°
2026-04-22 02:07 -2.72218 47.32398 33846 ft 484 kts 336°
2026-04-22 02:08 -2.65999 47.29739 33841 ft 484 kts 336°
2026-04-22 02:08 -2.59813 47.27094 33839 ft 486 kts 336°
2026-04-22 02:09 -2.53560 47.24421 33838 ft 484 kts 336°
2026-04-22 02:09 -2.47351 47.21767 33830 ft 483 kts 336°
2026-04-22 02:10 -2.41165 47.19123 33828 ft 483 kts 336°
2026-04-22 02:10 -2.34957 47.16471 33836 ft 483 kts 336°
2026-04-22 02:11 -2.28770 47.13827 33847 ft 485 kts 336°
2026-04-22 02:11 -2.22549 47.11169 33848 ft 483 kts 336°
2026-04-22 02:12 -2.16346 47.08519 33847 ft 484 kts 336°
2026-04-22 02:12 -2.10192 47.05890 33849 ft 482 kts 336°
2026-04-22 02:13 -2.03985 47.03239 33848 ft 483 kts 336°
2026-04-22 02:13 -1.97768 47.00584 33846 ft 483 kts 336°
2026-04-22 02:14 -1.91613 46.97955 33845 ft 482 kts 336°
2026-04-22 02:14 -1.85406 46.95305 33848 ft 483 kts 336°
2026-04-22 02:15 -1.79226 46.92665 33847 ft 483 kts 336°
2026-04-22 02:15 -1.73034 46.90022 33847 ft 482 kts 336°
2026-04-22 02:16 -1.66812 46.87365 33847 ft 483 kts 336°
2026-04-22 02:16 -1.60628 46.84725 33842 ft 484 kts 336°
2026-04-22 02:17 -1.54438 46.82083 33841 ft 482 kts 336°
2026-04-22 02:17 -1.48254 46.79443 33837 ft 483 kts 336°
2026-04-22 02:18 -1.42080 46.76808 33833 ft 482 kts 336°
2026-04-22 02:18 -1.35888 46.74165 33834 ft 483 kts 336°
2026-04-22 02:19 -1.29702 46.71525 33831 ft 483 kts 336°
2026-04-22 02:19 -1.23501 46.68879 33831 ft 484 kts 336°
2026-04-22 02:20 -1.17285 46.66226 33829 ft 483 kts 337°
2026-04-22 02:20 -1.11111 46.63591 33826 ft 483 kts 336°
2026-04-22 02:21 -1.04920 46.60950 33825 ft 483 kts 337°
2026-04-22 02:21 -0.98734 46.58310 33826 ft 483 kts 337°
2026-04-22 02:22 -0.92516 46.55658 33824 ft 483 kts 337°
2026-04-22 02:22 -0.86313 46.53011 33831 ft 483 kts 337°
2026-04-22 02:23 -0.80112 46.50365 33830 ft 484 kts 337°
2026-04-22 02:23 -0.73938 46.47732 33835 ft 483 kts 337°
2026-04-22 02:24 -0.67750 46.45092 33845 ft 483 kts 337°
2026-04-22 02:24 -0.61517 46.42433 33847 ft 483 kts 337°
2026-04-22 02:25 -0.55323 46.39791 33847 ft 483 kts 337°
2026-04-22 02:25 -0.49160 46.37162 33848 ft 484 kts 337°
2026-04-22 02:26 -0.42921 46.34501 33849 ft 484 kts 337°
2026-04-22 02:26 -0.36732 46.31861 33848 ft 484 kts 337°
2026-04-22 02:27 -0.30505 46.29205 33848 ft 486 kts 337°
2026-04-22 02:27 -0.24286 46.26552 33848 ft 485 kts 337°
2026-04-22 02:28 -0.18061 46.23896 33849 ft 485 kts 337°
2026-04-22 02:28 -0.11879 46.21191 33847 ft 485 kts 337°
2026-04-22 02:29 -0.05681 46.18473 33847 ft 487 kts 337°
2026-04-22 02:29 0.00534 46.15749 33838 ft 487 kts 337°
2026-04-22 02:30 0.06779 46.13014 33829 ft 486 kts 337°
2026-04-22 02:30 0.12965 46.10305 33831 ft 487 kts 337°
2026-04-22 02:31 0.19187 46.07580 33828 ft 487 kts 337°
2026-04-22 02:31 0.25427 46.04848 33828 ft 488 kts 337°
2026-04-22 02:32 0.31665 46.02117 33827 ft 489 kts 337°
2026-04-22 02:32 0.37869 45.99400 33826 ft 488 kts 337°
2026-04-22 02:33 0.44142 45.96654 33827 ft 489 kts 337°
2026-04-22 02:33 0.50357 45.93933 33825 ft 488 kts 337°
2026-04-22 02:34 0.56569 45.91214 33828 ft 489 kts 337°
2026-04-22 02:34 0.62830 45.88526 33827 ft 488 kts 337°
2026-04-22 02:35 0.69112 45.85833 33826 ft 488 kts 337°
2026-04-22 02:35 0.75370 45.83149 33825 ft 488 kts 337°
2026-04-22 02:36 0.81612 45.80470 33830 ft 488 kts 337°
2026-04-22 02:36 0.87834 45.77800 33838 ft 488 kts 337°
2026-04-22 02:37 0.94076 45.75120 33848 ft 487 kts 337°
2026-04-22 02:37 1.00364 45.72420 33846 ft 489 kts 337°
2026-04-22 02:38 1.06626 45.69732 33847 ft 490 kts 337°
2026-04-22 02:38 1.12864 45.67053 33850 ft 489 kts 337°
2026-04-22 02:39 1.19138 45.64359 33847 ft 488 kts 337°
2026-04-22 02:39 1.25411 45.61665 33848 ft 488 kts 337°
2026-04-22 02:40 1.31672 45.58977 33852 ft 489 kts 337°
2026-04-22 02:40 1.37930 45.56289 33846 ft 490 kts 337°
2026-04-22 02:41 1.44201 45.53596 33846 ft 491 kts 337°
2026-04-22 02:41 1.50510 45.50886 33847 ft 491 kts 337°
2026-04-22 02:42 1.56803 45.48183 33846 ft 490 kts 337°
2026-04-22 02:42 1.63044 45.45501 33846 ft 490 kts 337°
2026-04-22 02:43 1.69381 45.42779 33849 ft 492 kts 337°
2026-04-22 02:43 1.75683 45.40072 33849 ft 493 kts 337°
2026-04-22 02:44 1.81975 45.37368 33847 ft 494 kts 337°
2026-04-22 02:44 1.88334 45.34636 33849 ft 493 kts 337°
2026-04-22 02:45 1.94662 45.31916 33846 ft 494 kts 337°
2026-04-22 02:45 2.00958 45.29210 33847 ft 494 kts 337°
2026-04-22 02:46 2.07274 45.26422 33851 ft 494 kts 336°
2026-04-22 02:46 2.13590 45.23618 33854 ft 494 kts 336°
2026-04-22 02:47 2.19885 45.20827 33856 ft 495 kts 336°
2026-04-22 02:47 2.26171 45.18040 33859 ft 493 kts 336°
2026-04-22 02:48 2.32470 45.15248 33858 ft 492 kts 336°
2026-04-22 02:48 2.38712 45.12481 33865 ft 491 kts 336°
2026-04-22 02:49 2.44984 45.09701 33865 ft 492 kts 336°
2026-04-22 02:49 2.51239 45.06929 33877 ft 490 kts 336°
2026-04-22 02:50 2.57472 45.04166 33880 ft 492 kts 336°
2026-04-22 02:50 2.63765 45.01376 33881 ft 489 kts 336°
2026-04-22 02:51 2.69980 44.98621 33880 ft 490 kts 336°
2026-04-22 02:51 2.76226 44.95851 33881 ft 488 kts 336°
2026-04-22 02:52 2.82432 44.93099 33884 ft 490 kts 336°
2026-04-22 02:52 2.88702 44.90318 33884 ft 487 kts 336°
2026-04-22 02:53 2.94904 44.87567 33887 ft 489 kts 336°
2026-04-22 02:53 3.01118 44.84810 33889 ft 488 kts 336°
2026-04-22 02:54 3.07348 44.82046 33894 ft 488 kts 336°
2026-04-22 02:54 3.13581 44.79281 33902 ft 488 kts 336°
2026-04-22 02:55 3.19803 44.76519 33904 ft 487 kts 336°
2026-04-22 02:55 3.26024 44.73758 33909 ft 487 kts 336°
2026-04-22 02:56 3.32231 44.71003 33912 ft 487 kts 336°
2026-04-22 02:56 3.38429 44.68251 33916 ft 489 kts 336°
2026-04-22 02:57 3.44655 44.65487 33915 ft 488 kts 336°
2026-04-22 02:57 3.50903 44.62712 33917 ft 488 kts 336°
2026-04-22 02:58 3.57109 44.59955 33921 ft 487 kts 336°
2026-04-22 02:58 3.63323 44.57195 33923 ft 487 kts 336°
2026-04-22 02:59 3.69493 44.54454 33924 ft 487 kts 336°
2026-04-22 02:59 3.75741 44.51677 33929 ft 487 kts 336°
2026-04-22 03:00 3.81943 44.48921 33933 ft 489 kts 336°
2026-04-22 03:00 3.88184 44.46147 33934 ft 488 kts 336°
2026-04-22 03:01 3.94365 44.43399 33936 ft 488 kts 336°
2026-04-22 03:01 4.00583 44.40634 33936 ft 488 kts 336°
2026-04-22 03:02 4.06802 44.37868 33940 ft 488 kts 336°
2026-04-22 03:02 4.13053 44.35088 33955 ft 489 kts 336°
2026-04-22 03:03 4.19297 44.32310 33963 ft 489 kts 335°
2026-04-22 03:03 4.25515 44.29543 33966 ft 489 kts 335°
2026-04-22 03:04 4.31749 44.26769 33973 ft 490 kts 335°
2026-04-22 03:04 4.37993 44.23989 33973 ft 489 kts 335°
2026-04-22 03:05 4.44245 44.21206 33979 ft 489 kts 335°
2026-04-22 03:05 4.50461 44.18438 33984 ft 489 kts 335°
2026-04-22 03:06 4.56731 44.15646 33988 ft 489 kts 335°
2026-04-22 03:06 4.62934 44.12883 33984 ft 489 kts 336°
2026-04-22 03:07 4.69164 44.10107 33984 ft 490 kts 336°
2026-04-22 03:07 4.75415 44.07321 33973 ft 490 kts 336°
2026-04-22 03:08 4.81663 44.04536 33957 ft 489 kts 336°
2026-04-22 03:08 4.87890 44.01761 33951 ft 489 kts 336°
2026-04-22 03:09 4.94101 43.98982 33944 ft 490 kts 335°
2026-04-22 03:09 5.00334 43.96145 33940 ft 489 kts 335°
2026-04-22 03:10 5.06546 43.93317 33937 ft 489 kts 335°
2026-04-22 03:10 5.12743 43.90496 33932 ft 489 kts 335°
2026-04-22 03:11 5.18955 43.87669 33929 ft 490 kts 335°
2026-04-22 03:11 5.25178 43.84837 33926 ft 490 kts 335°
2026-04-22 03:12 5.31419 43.81997 33931 ft 490 kts 335°
2026-04-22 03:12 5.40755 43.77747 33944 ft 489 kts 335°
2026-04-22 03:13 5.46954 43.74923 33951 ft 488 kts 335°
2026-04-22 03:13 5.53124 43.72113 33957 ft 488 kts 335°
2026-04-22 03:14 5.59336 43.69283 33947 ft 488 kts 336°
2026-04-22 03:14 5.65556 43.66449 33943 ft 490 kts 336°
2026-04-22 03:15 5.71745 43.63633 33933 ft 489 kts 336°
2026-04-22 03:15 5.77983 43.60800 33925 ft 487 kts 335°
2026-04-22 03:16 5.84156 43.57996 33929 ft 489 kts 335°
2026-04-22 03:16 5.90360 43.55176 33931 ft 488 kts 335°
2026-04-22 03:17 5.96583 43.52347 33928 ft 489 kts 335°
2026-04-22 03:17 6.02777 43.49530 33926 ft 490 kts 336°
2026-04-22 03:18 6.09013 43.46694 33929 ft 492 kts 336°
2026-04-22 03:18 6.15267 43.43849 33932 ft 490 kts 335°
2026-04-22 03:19 6.21436 43.41042 33932 ft 487 kts 335°
2026-04-22 03:19 6.27664 43.38207 33933 ft 489 kts 335°
2026-04-22 03:20 6.33831 43.35399 33930 ft 488 kts 335°
2026-04-22 03:20 6.40042 43.32570 33941 ft 488 kts 335°
2026-04-22 03:21 6.46211 43.29760 33942 ft 487 kts 335°
2026-04-22 03:21 6.52414 43.26933 33951 ft 486 kts 335°
2026-04-22 03:22 6.58586 43.24120 33954 ft 487 kts 335°
2026-04-22 03:22 6.64730 43.21318 33955 ft 485 kts 335°
2026-04-22 03:23 6.70893 43.18508 33958 ft 484 kts 335°
2026-04-22 03:23 6.77041 43.15703 33969 ft 484 kts 335°
2026-04-22 03:24 6.83208 43.12889 33969 ft 484 kts 335°
2026-04-22 03:24 6.89337 43.10092 33974 ft 483 kts 335°
2026-04-22 03:25 6.95482 43.07286 33975 ft 483 kts 335°
2026-04-22 03:25 7.01586 43.04506 33982 ft 481 kts 335°
2026-04-22 03:26 7.07716 43.01720 33988 ft 482 kts 335°
2026-04-22 03:26 7.13829 42.98941 34003 ft 482 kts 335°
2026-04-22 03:27 7.19955 42.96154 34011 ft 482 kts 335°
2026-04-22 03:27 7.26062 42.93374 34020 ft 482 kts 335°
2026-04-22 03:28 7.32207 42.90577 34025 ft 481 kts 335°
2026-04-22 03:28 7.38312 42.87797 34029 ft 481 kts 335°
2026-04-22 03:29 7.44386 42.85030 34031 ft 480 kts 335°
2026-04-22 03:29 7.50492 42.82248 34032 ft 480 kts 335°
2026-04-22 03:30 7.56415 42.79549 34036 ft 481 kts 335°
2026-04-22 03:30 7.62507 42.76771 34031 ft 480 kts 335°
2026-04-22 03:31 7.68590 42.73997 34031 ft 480 kts 335°
2026-04-22 03:31 7.74692 42.71213 34032 ft 480 kts 335°
2026-04-22 03:32 7.80761 42.68443 34036 ft 478 kts 335°
2026-04-22 03:32 7.86872 42.65654 34041 ft 479 kts 335°
2026-04-22 03:33 7.92943 42.62882 34047 ft 478 kts 335°
2026-04-22 03:33 7.99017 42.60107 34053 ft 479 kts 335°
2026-04-22 03:34 8.05082 42.57336 34063 ft 479 kts 335°
2026-04-22 03:34 8.11178 42.54549 34074 ft 479 kts 335°
2026-04-22 03:35 8.17260 42.51768 34108 ft 478 kts 335°
2026-04-22 03:35 8.23351 42.48982 34123 ft 478 kts 335°
2026-04-22 03:36 8.29406 42.46215 34133 ft 478 kts 335°
2026-04-22 03:36 8.35472 42.43443 34131 ft 478 kts 335°
2026-04-22 03:37 8.41560 42.40660 34136 ft 478 kts 335°
2026-04-22 03:37 8.47613 42.37896 34141 ft 477 kts 335°
2026-04-22 03:38 8.53713 42.35112 34142 ft 478 kts 335°
2026-04-22 03:38 8.59766 42.32349 34150 ft 477 kts 335°
2026-04-22 03:39 8.65838 42.29576 34152 ft 478 kts 335°
2026-04-22 03:39 8.71899 42.26807 34151 ft 478 kts 335°
2026-04-22 03:40 8.77964 42.24035 34169 ft 477 kts 335°
2026-04-22 03:40 8.84019 42.21266 34180 ft 477 kts 335°
2026-04-22 03:41 8.90102 42.18484 34201 ft 477 kts 335°
2026-04-22 03:41 8.96137 42.15723 34204 ft 477 kts 335°
2026-04-22 03:42 9.02202 42.12947 34198 ft 478 kts 335°
2026-04-22 03:42 9.08267 42.10170 34213 ft 477 kts 335°
2026-04-22 03:43 9.14381 42.07369 34208 ft 478 kts 335°
2026-04-22 03:43 9.20435 42.04595 34216 ft 477 kts 335°
2026-04-22 03:44 9.26495 42.01817 34224 ft 477 kts 335°
2026-04-22 03:44 9.32533 41.99048 34227 ft 477 kts 335°
2026-04-22 03:45 9.38587 41.96271 34246 ft 477 kts 335°
2026-04-22 03:45 9.44665 41.93481 34219 ft 477 kts 335°
2026-04-22 03:46 9.50748 41.90689 34202 ft 477 kts 335°
2026-04-22 03:46 9.56806 41.87906 34157 ft 477 kts 335°
2026-04-22 03:47 9.62849 41.85130 34121 ft 477 kts 334°
2026-04-22 03:47 9.68921 41.82342 34087 ft 477 kts 335°
2026-04-22 03:48 9.74984 41.79559 34028 ft 477 kts 335°
2026-04-22 03:48 9.81039 41.76778 34017 ft 477 kts 335°
2026-04-22 03:49 9.87099 41.73994 33993 ft 477 kts 335°
2026-04-22 03:49 9.93152 41.71213 33963 ft 476 kts 335°
2026-04-22 03:50 9.99227 41.68419 33982 ft 477 kts 335°
2026-04-22 03:50 10.05258 41.65646 33952 ft 477 kts 334°
2026-04-22 03:51 10.11316 41.62858 33954 ft 478 kts 334°
2026-04-22 03:51 10.17405 41.60055 33952 ft 478 kts 334°
2026-04-22 03:52 10.23468 41.57263 33944 ft 477 kts 334°
2026-04-22 03:52 10.29524 41.54472 33946 ft 477 kts 334°
2026-04-22 03:53 10.35587 41.51677 33950 ft 477 kts 334°
2026-04-22 03:53 10.41628 41.48892 33947 ft 476 kts 334°
2026-04-22 03:54 10.47683 41.46099 33952 ft 477 kts 334°
2026-04-22 03:54 10.53730 41.43308 33946 ft 476 kts 334°
2026-04-22 03:55 10.59783 41.40514 33931 ft 475 kts 334°
2026-04-22 03:55 10.66019 41.38192 33922 ft 477 kts 339°
2026-04-22 03:56 10.72296 41.36005 33911 ft 477 kts 339°
2026-04-22 03:56 10.78605 41.33802 33906 ft 477 kts 339°
2026-04-22 03:57 10.84891 41.31605 33906 ft 478 kts 339°
2026-04-22 03:57 10.91204 41.29396 33904 ft 477 kts 339°
2026-04-22 03:58 10.97484 41.27197 33900 ft 476 kts 339°
2026-04-22 03:58 11.03746 41.25002 33900 ft 477 kts 339°
2026-04-22 03:59 11.10028 41.22800 33900 ft 477 kts 339°
2026-04-22 03:59 11.16384 41.20570 33901 ft 478 kts 339°
2026-04-22 04:00 11.22683 41.18360 33900 ft 478 kts 339°
2026-04-22 04:00 11.28989 41.16146 33908 ft 477 kts 339°
2026-04-22 04:01 11.35263 41.13942 33917 ft 478 kts 339°
2026-04-22 04:01 11.41564 41.11728 33920 ft 476 kts 339°
2026-04-22 04:02 11.47838 41.09522 33923 ft 477 kts 339°
2026-04-22 04:02 11.54173 41.07294 33923 ft 479 kts 339°
2026-04-22 04:03 11.60482 41.05074 33913 ft 478 kts 339°
2026-04-22 04:03 11.66768 41.02861 33904 ft 478 kts 339°
2026-04-22 04:04 11.73060 41.00644 33896 ft 477 kts 339°
2026-04-22 04:04 11.79222 40.98090 33887 ft 474 kts 329°
2026-04-22 04:05 11.84509 40.94109 33902 ft 473 kts 319°
2026-04-22 04:05 11.89560 40.89754 33899 ft 475 kts 319°
2026-04-22 04:06 11.94603 40.85399 33910 ft 475 kts 319°
2026-04-22 04:06 11.99625 40.81061 33918 ft 473 kts 319°
2026-04-22 04:07 12.04667 40.76703 33928 ft 473 kts 319°
2026-04-22 04:07 12.09689 40.72360 33933 ft 473 kts 319°
2026-04-22 04:08 12.14694 40.68030 33940 ft 472 kts 319°
2026-04-22 04:08 12.19710 40.63688 33949 ft 471 kts 319°
2026-04-22 04:09 12.24724 40.59345 33941 ft 473 kts 319°
2026-04-22 04:09 12.29748 40.54992 33947 ft 473 kts 319°
2026-04-22 04:10 12.34752 40.50654 33945 ft 472 kts 319°
2026-04-22 04:10 12.39775 40.46298 33949 ft 471 kts 319°
2026-04-22 04:11 12.44781 40.41953 33947 ft 472 kts 318°
2026-04-22 04:11 12.49767 40.37623 33935 ft 471 kts 318°
2026-04-22 04:12 12.54758 40.33287 33936 ft 471 kts 318°
2026-04-22 04:12 12.59773 40.28927 33948 ft 472 kts 318°
2026-04-22 04:13 12.64776 40.24576 33934 ft 472 kts 318°
2026-04-22 04:13 12.69770 40.20231 33959 ft 471 kts 318°
2026-04-22 04:14 12.74774 40.15873 33983 ft 471 kts 318°
2026-04-22 04:14 12.79759 40.11530 34018 ft 470 kts 318°
2026-04-22 04:15 12.84734 40.07195 34047 ft 469 kts 318°
2026-04-22 04:15 12.89710 40.02855 34073 ft 469 kts 318°
2026-04-22 04:16 12.97175 39.96340 34103 ft 470 kts 318°
2026-04-22 04:17 13.02150 39.91996 34121 ft 471 kts 318°
2026-04-22 04:17 13.07152 39.87625 34130 ft 470 kts 318°
2026-04-22 04:18 13.12128 39.83275 34148 ft 469 kts 318°
2026-04-22 04:18 13.17108 39.78919 34167 ft 469 kts 318°
2026-04-22 04:19 13.22070 39.74576 34188 ft 469 kts 318°
2026-04-22 04:19 13.27014 39.70247 34201 ft 470 kts 317°
2026-04-22 04:20 13.31998 39.65880 34211 ft 469 kts 317°
2026-04-22 04:20 13.36946 39.61543 34226 ft 468 kts 317°
2026-04-22 04:21 13.41912 39.57186 34245 ft 468 kts 318°
2026-04-22 04:21 13.46877 39.52804 34261 ft 468 kts 315°
2026-04-22 04:22 13.51358 39.47976 34284 ft 466 kts 311°
2026-04-22 04:22 13.55763 39.43090 34265 ft 466 kts 311°
2026-04-22 04:23 13.60185 39.38187 34258 ft 467 kts 311°
2026-04-22 04:23 13.64613 39.33276 34270 ft 467 kts 311°
2026-04-22 04:24 13.69059 39.28342 34292 ft 467 kts 311°
2026-04-22 04:24 13.73466 39.23449 34316 ft 467 kts 311°
2026-04-22 04:25 13.77851 39.18578 34304 ft 466 kts 311°
2026-04-22 04:25 13.82269 39.13668 34286 ft 467 kts 311°
2026-04-22 04:26 13.86671 39.08772 34263 ft 466 kts 311°
2026-04-22 04:26 13.91084 39.03862 34265 ft 467 kts 311°
2026-04-22 04:27 13.95479 38.98968 34264 ft 466 kts 311°
2026-04-22 04:27 14.00132 38.94266 34271 ft 469 kts 321°
2026-04-22 04:28 14.05853 38.91013 34270 ft 475 kts 337°
2026-04-22 04:28 14.12354 38.89642 34269 ft 482 kts 354°
2026-04-22 04:29 14.19128 38.89648 34274 ft 485 kts 357°
2026-04-22 04:29 14.25869 38.89730 34283 ft 484 kts 357°
2026-04-22 04:30 14.32657 38.89808 34270 ft 485 kts 357°
2026-04-22 04:30 14.39410 38.89884 34248 ft 484 kts 357°
2026-04-22 04:31 14.46148 38.89959 34251 ft 484 kts 357°
2026-04-22 04:31 14.52922 38.90017 34237 ft 484 kts 356°
2026-04-22 04:32 14.59681 38.90020 34231 ft 484 kts 356°
2026-04-22 04:32 14.66439 38.90023 34247 ft 484 kts 356°
2026-04-22 04:33 14.73182 38.90028 34258 ft 483 kts 356°
2026-04-22 04:33 14.79916 38.90035 34246 ft 483 kts 355°
2026-04-22 04:34 14.86600 38.90041 34258 ft 482 kts 356°
2026-04-22 04:34 14.93334 38.90047 34261 ft 484 kts 355°
2026-04-22 04:35 15.00112 38.90054 34275 ft 484 kts 355°
2026-04-22 04:35 15.06860 38.90061 34276 ft 484 kts 355°
2026-04-22 04:36 15.13620 38.90068 34271 ft 484 kts 355°
2026-04-22 04:36 15.20342 38.90075 34276 ft 482 kts 355°
2026-04-22 04:37 15.27046 38.90082 34266 ft 482 kts 355°
2026-04-22 04:37 15.33815 38.90229 34254 ft 483 kts 357°
2026-04-22 04:38 15.40574 38.90492 34229 ft 485 kts 357°
2026-04-22 04:38 15.47316 38.90745 34214 ft 485 kts 357°
2026-04-22 04:39 15.54095 38.90995 34171 ft 486 kts 356°
2026-04-22 04:39 15.60837 38.91241 34124 ft 484 kts 357°
2026-04-22 04:40 15.67634 38.91487 34057 ft 485 kts 356°
2026-04-22 04:40 15.74393 38.91731 34012 ft 484 kts 356°
2026-04-22 04:41 15.81147 38.91974 33977 ft 485 kts 356°
2026-04-22 04:41 15.87928 38.92218 33975 ft 487 kts 356°
2026-04-22 04:42 15.94708 38.92463 33971 ft 485 kts 356°
2026-04-22 04:42 16.01460 38.92707 33935 ft 485 kts 356°
2026-04-22 04:43 16.08192 38.92949 33935 ft 485 kts 356°
2026-04-22 04:43 16.15006 38.93195 33910 ft 485 kts 356°
2026-04-22 04:44 16.21747 38.93439 33902 ft 486 kts 356°
2026-04-22 04:44 16.28542 38.93684 33891 ft 488 kts 356°
2026-04-22 04:45 16.35349 38.93930 33888 ft 487 kts 356°
2026-04-22 04:45 16.42097 38.94175 33888 ft 485 kts 356°
2026-04-22 04:46 16.48909 38.94421 33880 ft 488 kts 356°
2026-04-22 04:46 16.55708 38.94668 33881 ft 487 kts 356°
2026-04-22 04:47 16.62527 38.94915 33876 ft 488 kts 356°
2026-04-22 04:47 16.69319 38.95162 33872 ft 488 kts 356°
2026-04-22 04:48 16.76153 38.95410 33869 ft 489 kts 356°
2026-04-22 04:48 16.82961 38.95657 33864 ft 489 kts 356°
2026-04-22 04:49 16.89731 38.95903 33861 ft 490 kts 356°
2026-04-22 04:49 16.96583 38.96153 33853 ft 489 kts 355°
2026-04-22 04:50 17.03422 38.96402 33850 ft 490 kts 355°
2026-04-22 04:50 17.10236 38.96652 33840 ft 488 kts 355°
2026-04-22 04:51 17.17062 38.96900 33833 ft 489 kts 355°
2026-04-22 04:51 17.23893 38.97149 33833 ft 490 kts 355°
2026-04-22 04:52 17.30719 38.97398 33828 ft 490 kts 355°
2026-04-22 04:52 17.37524 38.97648 33829 ft 489 kts 355°
2026-04-22 04:53 17.44345 38.97896 33831 ft 491 kts 355°
2026-04-22 04:53 17.51195 38.98142 33831 ft 490 kts 355°
2026-04-22 04:54 17.57998 38.98386 33825 ft 490 kts 355°
2026-04-22 04:54 17.64829 38.98630 33830 ft 490 kts 355°
2026-04-22 04:55 17.71676 38.98876 33829 ft 491 kts 355°
2026-04-22 04:55 17.78476 38.99121 33828 ft 489 kts 355°
2026-04-22 04:56 17.85312 38.99366 33829 ft 489 kts 355°
2026-04-22 04:56 17.92148 38.99612 33830 ft 490 kts 355°
2026-04-22 04:57 17.98943 38.99856 33826 ft 492 kts 355°
2026-04-22 04:57 18.05798 39.00104 33838 ft 492 kts 355°
2026-04-22 04:58 18.12672 39.00352 33849 ft 491 kts 355°
2026-04-22 04:58 18.19520 39.00624 33841 ft 493 kts 356°
2026-04-22 04:59 18.26338 39.01009 33846 ft 493 kts 356°
2026-04-22 04:59 18.33246 39.01398 33839 ft 493 kts 356°
2026-04-22 05:00 18.40095 39.01780 33841 ft 495 kts 356°
2026-04-22 05:00 18.47018 39.02165 33839 ft 495 kts 356°
2026-04-22 05:01 18.53897 39.02548 33831 ft 496 kts 356°
2026-04-22 05:01 18.60816 39.02931 33835 ft 497 kts 356°
2026-04-22 05:02 18.67722 39.03315 33832 ft 495 kts 355°
2026-04-22 05:02 18.74648 39.03699 33835 ft 496 kts 356°
2026-04-22 05:03 18.81546 39.04082 33831 ft 497 kts 356°
2026-04-22 05:03 18.88499 39.04468 33832 ft 498 kts 355°
2026-04-22 05:04 18.95375 39.04851 33832 ft 499 kts 355°
2026-04-22 05:04 19.02370 39.05240 33834 ft 498 kts 355°
2026-04-22 05:05 19.09277 39.05618 33829 ft 498 kts 354°
2026-04-22 05:05 19.12698 39.05471 33828 ft 486 kts 345°
2026-04-22 05:05 19.16035 39.04803 33829 ft 480 kts 338°
2026-04-22 05:06 19.22476 39.02992 33828 ft 478 kts 337°
2026-04-22 05:06 19.28881 39.01166 33822 ft 477 kts 337°
2026-04-22 05:07 19.35314 38.99332 33829 ft 475 kts 337°
2026-04-22 05:07 19.41691 38.97511 33831 ft 477 kts 337°
2026-04-22 05:08 19.48051 38.95696 33831 ft 473 kts 337°
2026-04-22 05:08 19.54476 38.93859 33826 ft 476 kts 337°
2026-04-22 05:09 19.60874 38.92030 33830 ft 474 kts 337°
2026-04-22 05:09 19.67237 38.90210 33828 ft 475 kts 337°
2026-04-22 05:10 19.73643 38.88374 33828 ft 474 kts 337°
2026-04-22 05:10 19.79997 38.86554 33834 ft 473 kts 337°
2026-04-22 05:11 19.86359 38.84728 33832 ft 474 kts 337°
2026-04-22 05:11 19.92715 38.82905 33825 ft 470 kts 337°
2026-04-22 05:12 19.99056 38.81083 33826 ft 470 kts 337°
2026-04-22 05:12 20.05363 38.79269 33825 ft 470 kts 337°
2026-04-22 05:13 20.11671 38.77452 33827 ft 470 kts 337°
2026-04-22 05:13 20.18027 38.75621 33832 ft 469 kts 337°
2026-04-22 05:14 20.24365 38.73793 33831 ft 472 kts 337°
2026-04-22 05:14 20.30722 38.71960 33830 ft 470 kts 337°
2026-04-22 05:15 20.36996 38.70149 33828 ft 469 kts 336°
2026-04-22 05:15 20.43314 38.68322 33828 ft 468 kts 337°
2026-04-22 05:16 20.49591 38.66506 33831 ft 471 kts 336°
2026-04-22 05:16 20.55905 38.64679 33829 ft 468 kts 336°
2026-04-22 05:17 20.62236 38.62842 33829 ft 472 kts 336°
2026-04-22 05:17 20.68589 38.61001 33835 ft 469 kts 336°
2026-04-22 05:18 20.78046 38.58313 33827 ft 473 kts 341°
2026-04-22 05:18 20.84773 38.57970 33822 ft 495 kts 358°
2026-04-22 05:19 20.88162 38.58612 33825 ft 507 kts
2026-04-22 05:19 20.91577 38.59856 33821 ft 516 kts 16°
2026-04-22 05:19 20.94771 38.61641 33826 ft 527 kts 24°
2026-04-22 05:19 20.97892 38.63710 33827 ft 528 kts 25°
2026-04-22 05:20 21.04114 38.67878 33832 ft 528 kts 25°
2026-04-22 05:20 21.10374 38.72042 33826 ft 526 kts 25°
2026-04-22 05:21 21.16567 38.76144 33832 ft 526 kts 24°
2026-04-22 05:21 21.22789 38.80257 33837 ft 522 kts 24°
2026-04-22 05:22 21.28986 38.84350 33836 ft 524 kts 24°
2026-04-22 05:22 21.35213 38.88461 33837 ft 526 kts 24°
2026-04-22 05:23 21.41446 38.92582 33837 ft 523 kts 24°
2026-04-22 05:23 21.47669 38.96696 33846 ft 527 kts 24°
2026-04-22 05:24 21.53888 39.00813 33848 ft 526 kts 24°
2026-04-22 05:24 21.60260 39.04463 33843 ft 508 kts 12°
2026-04-22 05:25 21.63627 39.05541 33844 ft 495 kts
2026-04-22 05:25 21.66987 39.06057 33844 ft 488 kts 354°
2026-04-22 05:25 21.70347 39.06045 33843 ft 476 kts 346°
2026-04-22 05:25 21.73591 39.05534 33840 ft 464 kts 338°
2026-04-22 05:26 21.79547 39.03175 33844 ft 448 kts 323°
2026-04-22 05:26 21.84749 38.99636 33848 ft 440 kts 319°
2026-04-22 05:27 21.89768 38.95927 33846 ft 438 kts 317°
2026-04-22 05:27 21.94681 38.92031 33846 ft 434 kts 316°
2026-04-22 05:28 21.99501 38.88061 33845 ft 435 kts 315°
2026-04-22 05:28 22.04260 38.84069 33844 ft 436 kts 315°
2026-04-22 05:29 22.09017 38.80038 33837 ft 432 kts 315°
2026-04-22 05:29 22.13747 38.76005 33841 ft 436 kts 314°
2026-04-22 05:30 22.18466 38.71972 33837 ft 429 kts 314°
2026-04-22 05:30 22.23157 38.67950 33841 ft 431 kts 314°
2026-04-22 05:31 22.27846 38.63926 33834 ft 433 kts 314°
2026-04-22 05:31 22.32563 38.59873 33828 ft 432 kts 314°
2026-04-22 05:32 22.37256 38.55837 33826 ft 429 kts 314°
2026-04-22 05:32 22.41968 38.51779 33827 ft 432 kts 314°
2026-04-22 05:33 22.46654 38.47742 33828 ft 430 kts 314°
2026-04-22 05:33 22.51295 38.43737 33830 ft 430 kts 314°
2026-04-22 05:34 22.55988 38.39684 33833 ft 430 kts 314°
2026-04-22 05:34 22.60645 38.35658 33838 ft 431 kts 314°
2026-04-22 05:35 22.65339 38.31597 33859 ft 429 kts 313°
2026-04-22 05:35 22.69993 38.27567 33858 ft 429 kts 314°
2026-04-22 05:36 22.74620 38.23557 33855 ft 427 kts 313°
2026-04-22 05:36 22.79289 38.19504 33854 ft 429 kts 314°
2026-04-22 05:37 22.83945 38.15462 33854 ft 430 kts 314°
2026-04-22 05:37 22.88598 38.11418 33849 ft 428 kts 313°
2026-04-22 05:38 22.93225 38.07393 33849 ft 428 kts 313°
2026-04-22 05:38 22.97861 38.03358 33848 ft 426 kts 313°
2026-04-22 05:39 23.02497 37.99316 33846 ft 428 kts 314°
2026-04-22 05:39 23.07129 37.95276 33851 ft 429 kts 313°
2026-04-22 05:40 23.11776 37.91219 33849 ft 427 kts 313°
2026-04-22 05:40 23.16422 37.87159 33848 ft 427 kts 313°
2026-04-22 05:41 23.21031 37.83127 33844 ft 427 kts 313°
2026-04-22 05:41 23.25666 37.79070 33848 ft 425 kts 313°
2026-04-22 05:42 23.30297 37.75011 33842 ft 427 kts 313°
2026-04-22 05:42 23.34895 37.70980 33840 ft 424 kts 313°
2026-04-22 05:43 23.39518 37.66915 33842 ft 430 kts 313°
2026-04-22 05:43 23.44138 37.62854 33835 ft 424 kts 313°
2026-04-22 05:44 23.48745 37.58796 33841 ft 428 kts 313°
2026-04-22 05:44 23.53359 37.54733 33835 ft 425 kts 313°
2026-04-22 05:45 23.57979 37.50658 33835 ft 426 kts 313°
2026-04-22 05:45 23.62576 37.46601 33833 ft 426 kts 313°
2026-04-22 05:46 23.67189 37.42524 33837 ft 427 kts 313°
2026-04-22 05:46 23.71803 37.38443 33841 ft 427 kts 313°
2026-04-22 05:47 23.76426 37.34352 33852 ft 426 kts 313°
2026-04-22 05:47 23.81000 37.30300 33865 ft 423 kts 313°
2026-04-22 05:48 23.85592 37.26225 33867 ft 426 kts 313°
2026-04-22 05:48 23.90162 37.22169 33868 ft 424 kts 313°
2026-04-22 05:49 23.94738 37.18103 33870 ft 424 kts 313°
2026-04-22 05:49 23.99329 37.14020 33867 ft 426 kts 313°
2026-04-22 05:50 24.03943 37.09913 33869 ft 425 kts 313°
2026-04-22 05:50 24.08500 37.05853 33872 ft 425 kts 313°
2026-04-22 05:51 24.13080 37.01767 33866 ft 426 kts 313°
2026-04-22 05:51 24.17669 36.97670 33864 ft 426 kts 313°
2026-04-22 05:52 24.22263 36.93565 33869 ft 425 kts 313°
2026-04-22 05:52 24.26857 36.89455 33864 ft 427 kts 313°
2026-04-22 05:53 24.31468 36.85326 33858 ft 428 kts 313°
2026-04-22 05:53 24.36036 36.81234 33853 ft 425 kts 313°
2026-04-22 05:54 24.40649 36.77094 33850 ft 427 kts 313°
2026-04-22 05:54 24.45224 36.72986 33853 ft 427 kts 313°
2026-04-22 05:55 24.49814 36.68861 33851 ft 428 kts 313°
2026-04-22 05:55 24.54406 36.64731 33848 ft 425 kts 312°
2026-04-22 05:56 24.58901 36.60510 33846 ft 420 kts 307°
2026-04-22 05:56 24.62363 36.55458 33852 ft 411 kts 294°
2026-04-22 05:57 24.64531 36.49755 33849 ft 401 kts 285°
2026-04-22 05:57 24.66339 36.43977 33848 ft 401 kts 286°
2026-04-22 05:58 24.68146 36.38169 33847 ft 402 kts 286°
2026-04-22 05:58 24.69932 36.32416 33873 ft 400 kts 285°
2026-04-22 05:59 24.71730 36.26607 33876 ft 401 kts 285°
2026-04-22 05:59 24.73518 36.20821 33872 ft 400 kts 285°
2026-04-22 06:00 24.75302 36.15036 33879 ft 400 kts 285°
2026-04-22 06:00 24.77085 36.09247 33889 ft 401 kts 285°
2026-04-22 06:01 24.78867 36.03450 33892 ft 401 kts 285°
2026-04-22 06:01 24.80558 35.97944 33892 ft 400 kts 285°
2026-04-22 06:02 24.82331 35.92163 33890 ft 400 kts 285°
2026-04-22 06:02 24.84107 35.86360 33886 ft 399 kts 285°
2026-04-22 06:03 24.85875 35.80576 33891 ft 398 kts 285°
2026-04-22 06:03 24.87633 35.74814 33886 ft 399 kts 284°
2026-04-22 06:04 24.89397 35.69025 33888 ft 398 kts 285°
2026-04-22 06:04 24.91149 35.63263 33893 ft 398 kts 284°
2026-04-22 06:05 24.92905 35.57481 33886 ft 398 kts 285°
2026-04-22 06:05 24.94644 35.51749 33887 ft 397 kts 284°
2026-04-22 06:06 24.96384 35.46001 33888 ft 397 kts 284°
2026-04-22 06:06 24.98139 35.40196 33884 ft 397 kts 284°
2026-04-22 06:07 24.99873 35.34450 33883 ft 397 kts 284°
2026-04-22 06:07 25.01614 35.28672 33894 ft 398 kts 284°
2026-04-22 06:08 25.03345 35.22921 33893 ft 397 kts 285°
2026-04-22 06:08 25.05145 35.17157 33891 ft 398 kts 289°
2026-04-22 06:09 25.07967 35.11827 33897 ft 411 kts 301°
2026-04-22 06:09 25.11944 35.07223 33892 ft 419 kts 308°
2026-04-22 06:10 25.16113 35.02746 33897 ft 418 kts 307°
2026-04-22 06:10 25.20266 34.98257 33900 ft 416 kts 307°
2026-04-22 06:11 25.24399 34.93771 33913 ft 417 kts 307°
2026-04-22 06:11 25.28531 34.89276 33906 ft 421 kts 307°
2026-04-22 06:12 25.32675 34.84764 33905 ft 417 kts 307°
2026-04-22 06:12 25.36844 34.80216 33908 ft 419 kts 307°
2026-04-22 06:13 25.40992 34.75686 33912 ft 420 kts 307°
2026-04-22 06:13 25.45125 34.71168 33909 ft 418 kts 307°
2026-04-22 06:14 25.49292 34.66605 33921 ft 422 kts 307°
2026-04-22 06:14 25.53437 34.62065 33921 ft 420 kts 307°
2026-04-22 06:15 25.57609 34.57488 33923 ft 423 kts 307°
2026-04-22 06:15 25.61515 34.52732 33925 ft 417 kts 302°
2026-04-22 06:16 25.65230 34.47824 33927 ft 417 kts 303°
2026-04-22 06:16 25.68996 34.42886 33925 ft 417 kts 303°
2026-04-22 06:17 25.72762 34.37964 33928 ft 419 kts 303°
2026-04-22 06:17 25.76507 34.33076 33952 ft 417 kts 303°
2026-04-22 06:18 25.80286 34.28143 33961 ft 418 kts 303°
2026-04-22 06:18 25.84044 34.23233 33957 ft 419 kts 303°
2026-04-22 06:19 25.87815 34.18305 33951 ft 418 kts 303°
2026-04-22 06:19 25.91604 34.13347 33948 ft 421 kts 303°
2026-04-22 06:20 25.95384 34.08397 33944 ft 422 kts 303°
2026-04-22 06:20 25.99149 34.03464 33945 ft 421 kts 303°
2026-04-22 06:21 26.02947 33.98481 33945 ft 422 kts 303°
2026-04-22 06:21 26.06728 33.93515 33946 ft 422 kts 303°
2026-04-22 06:22 26.10542 33.88500 33946 ft 423 kts 303°
2026-04-22 06:22 26.14333 33.83511 33948 ft 422 kts 303°
2026-04-22 06:23 26.18128 33.78509 33952 ft 423 kts 303°
2026-04-22 06:23 26.21921 33.73505 33955 ft 423 kts 303°
2026-04-22 06:24 26.27613 33.65987 33958 ft 423 kts 303°
2026-04-22 06:25 26.31390 33.60989 33958 ft 425 kts 303°
2026-04-22 06:25 26.35207 33.55934 33959 ft 426 kts 303°
2026-04-22 06:26 26.39011 33.50891 33957 ft 424 kts 303°
2026-04-22 06:26 26.42787 33.45878 33956 ft 424 kts 303°
2026-04-22 06:27 26.46606 33.40803 33956 ft 425 kts 303°
2026-04-22 06:27 26.50408 33.35747 33955 ft 426 kts 303°
2026-04-22 06:28 26.54201 33.30697 33975 ft 426 kts 303°
2026-04-22 06:28 26.57983 33.25655 33974 ft 425 kts 303°
2026-04-22 06:29 26.61773 33.20598 33976 ft 426 kts 303°
2026-04-22 06:29 26.65576 33.15516 33972 ft 424 kts 302°
2026-04-22 06:30 26.69360 33.10454 33971 ft 425 kts 302°
2026-04-22 06:30 26.73133 33.05403 33967 ft 423 kts 302°
2026-04-22 06:31 26.76919 33.00326 33964 ft 424 kts 303°
2026-04-22 06:31 26.80701 32.95249 33964 ft 427 kts 302°
2026-04-22 06:32 26.84496 32.90149 33965 ft 427 kts 302°
2026-04-22 06:32 26.88296 32.85038 33962 ft 427 kts 303°
2026-04-22 06:33 26.92095 32.79922 33967 ft 426 kts 302°
2026-04-22 06:33 26.95886 32.74810 33969 ft 427 kts 302°
2026-04-22 06:34 26.99700 32.69660 33968 ft 429 kts 302°
2026-04-22 06:34 27.03474 32.64560 33974 ft 428 kts 302°
2026-04-22 06:35 27.07293 32.59392 33983 ft 430 kts 302°
2026-04-22 06:35 27.11109 32.54224 33989 ft 429 kts 303°
2026-04-22 06:36 27.14893 32.49093 33992 ft 426 kts 302°
2026-04-22 06:36 27.18708 32.43910 33996 ft 430 kts 303°
2026-04-22 06:37 27.22502 32.38752 33992 ft 428 kts 303°
2026-04-22 06:37 27.26316 32.33559 34014 ft 432 kts 302°
2026-04-22 06:38 27.30129 32.28366 34018 ft 430 kts 302°
2026-04-22 06:38 27.33798 32.23065 34018 ft 429 kts 301°
2026-04-22 06:39 27.37416 32.17761 34015 ft 430 kts 301°
2026-04-22 06:39 27.41054 32.12436 34010 ft 428 kts 301°
2026-04-22 06:40 27.44684 32.07123 34009 ft 429 kts 301°
2026-04-22 06:40 27.48331 32.01780 34011 ft 431 kts 301°
2026-04-22 06:41 27.51976 31.96438 34010 ft 429 kts 301°
2026-04-22 06:41 27.55648 31.91047 34011 ft 434 kts 301°
2026-04-22 06:42 27.59295 31.85689 34007 ft 432 kts 301°
2026-04-22 06:42 27.62959 31.80300 34004 ft 432 kts 301°
2026-04-22 06:43 27.66615 31.74915 34000 ft 432 kts 301°
2026-04-22 06:43 27.70260 31.69541 34004 ft 434 kts 302°
2026-04-22 06:44 27.73937 31.64112 34002 ft 433 kts 302°
2026-04-22 06:44 27.77583 31.58721 33998 ft 436 kts 302°
2026-04-22 06:45 27.81261 31.53278 33999 ft 436 kts 302°
2026-04-22 06:45 27.84940 31.47825 33992 ft 437 kts 302°
2026-04-22 06:46 27.88634 31.42345 33996 ft 436 kts 302°
2026-04-22 06:46 27.92291 31.36912 34002 ft 438 kts 302°
2026-04-22 06:47 27.95965 31.31446 34018 ft 437 kts 302°
2026-04-22 06:47 27.99633 31.25983 34011 ft 436 kts 302°
2026-04-22 06:48 28.03292 31.20526 33970 ft 436 kts 302°
2026-04-22 06:48 28.06958 31.15051 34006 ft 438 kts 302°
2026-04-22 06:49 28.10386 31.09419 34007 ft 433 kts 298°
2026-04-22 06:49 28.13725 31.03700 34007 ft 435 kts 299°
2026-04-22 06:50 28.17066 30.98001 34010 ft 434 kts 299°
2026-04-22 06:50 28.20424 30.92282 34006 ft 434 kts 299°
2026-04-22 06:51 28.23768 30.86587 34008 ft 434 kts 299°
2026-04-22 06:51 28.27109 30.80895 34003 ft 434 kts 299°
2026-04-22 06:52 28.30455 30.75187 34002 ft 436 kts 299°
2026-04-22 06:52 28.33796 30.69483 34002 ft 434 kts 299°
2026-04-22 06:53 28.37123 30.63794 34000 ft 435 kts 299°
2026-04-22 06:53 28.40450 30.58099 33999 ft 434 kts 299°
2026-04-22 06:54 28.43792 30.52370 34012 ft 433 kts 299°
2026-04-22 06:54 28.47107 30.46681 34017 ft 433 kts 299°
2026-04-22 06:55 28.50430 30.40968 34018 ft 434 kts 299°
2026-04-22 06:55 28.53754 30.35248 34020 ft 435 kts 299°
2026-04-22 06:56 28.57081 30.29514 34035 ft 433 kts 299°
2026-04-22 06:56 28.60406 30.23777 34034 ft 433 kts 298°
2026-04-22 06:57 28.63713 30.18061 34038 ft 433 kts 298°
2026-04-22 06:57 28.67013 30.12352 34037 ft 432 kts 299°
2026-04-22 06:58 28.70310 30.06638 34037 ft 433 kts 298°
2026-04-22 06:58 28.73625 30.00886 34037 ft 433 kts 299°
2026-04-22 06:59 28.76903 29.95191 34039 ft 432 kts 299°
2026-04-22 06:59 28.80205 29.89445 34037 ft 432 kts 298°
2026-04-22 07:00 28.83490 29.83722 34038 ft 432 kts 298°
2026-04-22 07:00 28.86762 29.78015 34041 ft 432 kts 298°
2026-04-22 07:01 28.90061 29.72250 34040 ft 432 kts 298°
2026-04-22 07:01 28.93337 29.66520 34040 ft 432 kts 299°
2026-04-22 07:02 28.96614 29.60778 34040 ft 431 kts 298°
2026-04-22 07:02 28.99871 29.55064 34039 ft 431 kts 299°
2026-04-22 07:03 29.03130 29.49340 34042 ft 432 kts 299°
2026-04-22 07:03 29.06400 29.43587 34043 ft 432 kts 299°
2026-04-22 07:04 29.09673 29.37821 34040 ft 432 kts 299°
2026-04-22 07:04 29.13372 29.32361 34046 ft 441 kts 310°
2026-04-22 07:05 29.18193 29.27929 34066 ft 447 kts 317°
2026-04-22 07:05 29.23154 29.23671 34050 ft 446 kts 317°
2026-04-22 07:06 29.28116 29.19389 34060 ft 444 kts 317°
2026-04-22 07:06 29.33049 29.15115 34050 ft 447 kts 317°
2026-04-22 07:07 29.38022 29.10797 34049 ft 446 kts 317°
2026-04-22 07:07 29.42956 29.06504 34047 ft 447 kts 317°
2026-04-22 07:08 29.47900 29.02184 34044 ft 446 kts 317°
2026-04-22 07:08 29.52823 28.97875 34048 ft 448 kts 317°
2026-04-22 07:09 29.57760 28.93550 34046 ft 447 kts 317°
2026-04-22 07:09 29.62700 28.89216 34053 ft 447 kts 317°
2026-04-22 07:10 29.67645 28.84873 34042 ft 446 kts 317°
2026-04-22 07:10 29.72582 28.80530 34043 ft 448 kts 317°
2026-04-22 07:11 29.77546 28.76159 34041 ft 448 kts 318°
2026-04-22 07:11 29.82512 28.71779 34050 ft 449 kts 318°
2026-04-22 07:12 29.87449 28.67421 34038 ft 447 kts 318°
2026-04-22 07:12 29.92390 28.63052 34030 ft 449 kts 318°
2026-04-22 07:13 29.97343 28.58668 34044 ft 448 kts 319°
2026-04-22 07:13 30.02318 28.54258 34029 ft 451 kts 319°
2026-04-22 07:14 30.07269 28.49865 34037 ft 450 kts 319°
2026-04-22 07:14 30.12264 28.45427 34034 ft 450 kts 319°
2026-04-22 07:15 30.17217 28.41019 34037 ft 451 kts 319°
2026-04-22 07:15 30.22170 28.36606 34031 ft 451 kts 319°
2026-04-22 07:16 30.27158 28.32156 34042 ft 451 kts 318°
2026-04-22 07:16 30.32103 28.27739 34046 ft 450 kts 319°
2026-04-22 07:17 30.37033 28.23329 34049 ft 450 kts 319°
2026-04-22 07:17 30.42017 28.18866 34048 ft 450 kts 319°
2026-04-22 07:18 30.46951 28.14440 34059 ft 450 kts 319°
2026-04-22 07:18 30.51873 28.10020 34054 ft 449 kts 319°
2026-04-22 07:19 30.56828 28.05565 34059 ft 448 kts 319°
2026-04-22 07:19 30.61768 28.01117 34059 ft 448 kts 319°
2026-04-22 07:20 30.66687 27.96681 34060 ft 451 kts 319°
2026-04-22 07:20 30.71635 27.92215 34055 ft 449 kts 319°
2026-04-22 07:21 30.76575 27.87749 34060 ft 449 kts 319°
2026-04-22 07:21 30.81471 27.83318 34050 ft 447 kts 319°
2026-04-22 07:22 30.86372 27.78875 34053 ft 447 kts 319°
2026-04-22 07:22 30.91285 27.74416 34050 ft 448 kts 319°
2026-04-22 07:23 30.96193 27.69956 34050 ft 448 kts 319°
2026-04-22 07:23 31.01113 27.65479 34055 ft 447 kts 319°
2026-04-22 07:24 31.05998 27.61028 34047 ft 447 kts 319°
2026-04-22 07:24 31.10883 27.56565 34043 ft 446 kts 318°
2026-04-22 07:25 31.15062 27.51305 34047 ft 442 kts 304°
2026-04-22 07:25 31.18520 27.45423 34047 ft 441 kts 303°
2026-04-22 07:26 31.21965 27.39508 34046 ft 441 kts 303°
2026-04-22 07:26 31.25420 27.33557 34051 ft 441 kts 302°
2026-04-22 07:27 31.28852 27.27631 34061 ft 441 kts 302°
2026-04-22 07:27 31.32756 27.22092 34058 ft 444 kts 315°
2026-04-22 07:28 31.40405 27.15919 34060 ft 448 kts 324°
2026-04-22 07:28 31.45669 27.11991 34058 ft 448 kts 324°
2026-04-22 07:29 31.50923 27.08060 34053 ft 449 kts 324°
2026-04-22 07:29 31.56193 27.04109 34049 ft 448 kts 324°
2026-04-22 07:30 31.61424 27.00182 34045 ft 447 kts 324°
2026-04-22 07:30 31.66640 26.96260 34044 ft 445 kts 324°
2026-04-22 07:31 31.71840 26.92344 34044 ft 446 kts 324°
2026-04-22 07:31 31.77090 26.88384 34037 ft 446 kts 324°
2026-04-22 07:32 31.82292 26.84456 34039 ft 447 kts 324°
2026-04-22 07:32 31.87540 26.80487 34036 ft 447 kts 324°
2026-04-22 07:33 31.92761 26.76534 34031 ft 447 kts 324°
2026-04-22 07:33 31.97970 26.72584 34031 ft 446 kts 324°
2026-04-22 07:34 32.03163 26.68641 34033 ft 446 kts 324°
2026-04-22 07:34 32.08388 26.64667 34028 ft 446 kts 324°
2026-04-22 07:35 32.13615 26.60687 34034 ft 447 kts 324°
2026-04-22 07:35 32.18801 26.56733 34033 ft 446 kts 324°
2026-04-22 07:36 32.24028 26.52742 34031 ft 446 kts 324°
2026-04-22 07:36 32.29221 26.48772 34028 ft 445 kts 324°
2026-04-22 07:37 32.34383 26.44820 34033 ft 445 kts 324°
2026-04-22 07:37 32.39574 26.40839 34029 ft 445 kts 324°
2026-04-22 07:38 32.44755 26.36862 34028 ft 446 kts 324°
2026-04-22 07:38 32.49970 26.32852 34042 ft 446 kts 323°
2026-04-22 07:39 32.55154 26.28861 34036 ft 445 kts 324°
2026-04-22 07:39 32.60349 26.24855 34037 ft 445 kts 324°
2026-04-22 07:40 32.65524 26.20859 34040 ft 445 kts 324°
2026-04-22 07:40 32.70711 26.16849 34038 ft 444 kts 324°
2026-04-22 07:41 32.75882 26.12845 34036 ft 445 kts 324°
2026-04-22 07:41 32.81061 26.08829 34032 ft 447 kts 324°
2026-04-22 07:42 32.86253 26.04798 34035 ft 445 kts 324°
2026-04-22 07:42 32.91418 26.00783 34033 ft 444 kts 323°
2026-04-22 07:43 32.96606 25.96742 34033 ft 445 kts 324°
2026-04-22 07:43 33.01769 25.92717 34033 ft 444 kts 324°
2026-04-22 07:44 33.06953 25.88668 34034 ft 445 kts 323°
2026-04-22 07:44 33.12124 25.84625 34037 ft 445 kts 323°
2026-04-22 07:45 33.17304 25.80569 34035 ft 444 kts 323°
2026-04-22 07:45 33.22438 25.76542 34033 ft 445 kts 323°
2026-04-22 07:46 33.27624 25.72469 34032 ft 444 kts 323°
2026-04-22 07:46 33.32770 25.68421 34033 ft 444 kts 323°
2026-04-22 07:47 33.37932 25.64355 34035 ft 445 kts 323°
2026-04-22 07:47 33.43090 25.60287 34028 ft 445 kts 323°
2026-04-22 07:48 33.48275 25.56192 34022 ft 444 kts 323°
2026-04-22 07:48 33.53416 25.52125 34030 ft 444 kts 323°
2026-04-22 07:49 33.58569 25.48043 34020 ft 444 kts 323°
2026-04-22 07:49 33.63731 25.43948 34022 ft 444 kts 323°
2026-04-22 07:50 33.68866 25.39868 34018 ft 444 kts 323°
2026-04-22 07:50 33.74024 25.35763 34012 ft 445 kts 323°
2026-04-22 07:51 33.79177 25.31657 34018 ft 445 kts 323°
2026-04-22 07:51 33.84329 25.27545 34016 ft 446 kts 323°
2026-04-22 07:52 33.89502 25.23412 34021 ft 446 kts 323°
2026-04-22 07:52 33.94649 25.19292 34013 ft 445 kts 323°
2026-04-22 07:53 33.99754 25.15133 34006 ft 444 kts 319°
2026-04-22 07:53 34.04443 25.10298 34012 ft 442 kts 316°
2026-04-22 07:54 34.09038 25.05442 34008 ft 442 kts 316°
2026-04-22 07:54 34.13683 25.00525 34013 ft 442 kts 316°
2026-04-22 07:55 34.18309 24.95618 34012 ft 443 kts 316°
2026-04-22 07:55 34.22908 24.90731 34007 ft 442 kts 316°
2026-04-22 07:56 34.27533 24.85809 34005 ft 443 kts 316°
2026-04-22 07:56 34.32136 24.80902 34007 ft 443 kts 316°
2026-04-22 07:57 34.36763 24.75963 34281 ft 442 kts 316°
2026-04-22 07:57 34.39071 24.73496 34523 ft 442 kts 316°
2026-04-22 07:57 34.41367 24.71041 34748 ft 441 kts 316°
2026-04-22 07:58 34.43637 24.68611 34970 ft 441 kts 316°
2026-04-22 07:58 34.45963 24.66120 35197 ft 441 kts 316°
2026-04-22 07:58 34.48253 24.63665 35420 ft 440 kts 316°
2026-04-22 07:58 34.50549 24.61201 35645 ft 440 kts 316°
2026-04-22 07:59 34.52803 24.58781 35865 ft 440 kts 316°
2026-04-22 07:59 34.55114 24.56298 35987 ft 442 kts 316°
2026-04-22 07:59 34.59691 24.51374 36001 ft 440 kts 316°
2026-04-22 08:00 34.64259 24.46452 36000 ft 439 kts 315°
2026-04-22 08:00 34.68824 24.41526 36001 ft 439 kts 316°
2026-04-22 08:01 34.73401 24.36580 36001 ft 440 kts 316°
2026-04-22 08:01 34.77978 24.31625 36010 ft 440 kts 315°
2026-04-22 08:02 34.82531 24.26690 36011 ft 440 kts 315°
2026-04-22 08:02 34.87098 24.21732 36011 ft 440 kts 315°
2026-04-22 08:03 34.91652 24.16780 36023 ft 440 kts 315°
2026-04-22 08:03 34.96209 24.11816 36018 ft 439 kts 315°
2026-04-22 08:04 35.00766 24.06846 36014 ft 439 kts 315°
2026-04-22 08:04 35.05306 24.01886 36010 ft 440 kts 315°
2026-04-22 08:05 35.09848 23.96916 36017 ft 439 kts 315°
2026-04-22 08:05 35.14375 23.91954 36020 ft 439 kts 315°
2026-04-22 08:06 35.18916 23.86970 36021 ft 439 kts 315°
2026-04-22 08:06 35.23439 23.81997 36019 ft 439 kts 315°
2026-04-22 08:07 35.27994 23.76981 36017 ft 439 kts 315°
2026-04-22 08:07 35.32536 23.71974 36008 ft 439 kts 315°
2026-04-22 08:08 35.37049 23.66987 36000 ft 440 kts 315°
2026-04-22 08:08 35.41610 23.61943 35998 ft 440 kts 315°
2026-04-22 08:09 35.46145 23.56917 35989 ft 440 kts 315°
2026-04-22 08:09 35.50653 23.51915 35990 ft 440 kts 315°
2026-04-22 08:10 35.55184 23.46878 35986 ft 440 kts 315°
2026-04-22 08:10 35.59717 23.41831 35983 ft 440 kts 315°
2026-04-22 08:11 35.64238 23.36789 35985 ft 440 kts 315°
2026-04-22 08:11 35.68760 23.31738 35992 ft 440 kts 315°
2026-04-22 08:12 35.73284 23.26677 35994 ft 440 kts 315°
2026-04-22 08:12 35.77833 23.21580 35993 ft 441 kts 315°
2026-04-22 08:13 35.82338 23.16524 35989 ft 440 kts 315°
2026-04-22 08:13 35.86858 23.11443 35978 ft 441 kts 315°
2026-04-22 08:14 35.91364 23.06370 35974 ft 440 kts 315°
2026-04-22 08:14 35.95885 23.01272 35973 ft 440 kts 315°
2026-04-22 08:15 36.00392 22.96180 35972 ft 442 kts 315°
2026-04-22 08:15 36.04951 22.91022 35980 ft 442 kts 315°
2026-04-22 08:16 36.09457 22.85916 35977 ft 439 kts 315°
2026-04-22 08:16 36.13974 22.80789 35977 ft 438 kts 315°
2026-04-22 08:17 36.18478 22.75668 35981 ft 439 kts 314°
2026-04-22 08:17 36.22960 22.70564 35974 ft 439 kts 315°
2026-04-22 08:18 36.27435 22.65459 35978 ft 437 kts 315°
2026-04-22 08:18 36.31910 22.60346 35976 ft 439 kts 314°
2026-04-22 08:19 36.36373 22.55239 35967 ft 436 kts 314°
2026-04-22 08:19 36.40830 22.50129 35971 ft 435 kts 314°
2026-04-22 08:20 36.45246 22.45059 35964 ft 435 kts 314°
2026-04-22 08:20 36.49715 22.39919 35968 ft 437 kts 314°
2026-04-22 08:21 36.54146 22.34815 35961 ft 435 kts 314°
2026-04-22 08:21 36.58583 22.29696 35976 ft 435 kts 314°
2026-04-22 08:22 36.63007 22.24583 35973 ft 434 kts 314°
2026-04-22 08:22 36.67426 22.19467 35973 ft 434 kts 314°
2026-04-22 08:23 36.71840 22.14350 35976 ft 434 kts 314°
2026-04-22 08:23 36.76262 22.09212 35978 ft 434 kts 314°
2026-04-22 08:24 36.80686 22.04067 35975 ft 434 kts 314°
2026-04-22 08:24 36.85072 21.98956 35977 ft 433 kts 314°
2026-04-22 08:25 36.89456 21.93839 35979 ft 433 kts 314°
2026-04-22 08:25 36.93855 21.88696 35979 ft 433 kts 314°
2026-04-22 08:26 36.98257 21.83540 35982 ft 433 kts 314°
2026-04-22 08:26 37.02654 21.78383 35994 ft 433 kts 314°
2026-04-22 08:27 37.07039 21.73231 36001 ft 433 kts 314°
2026-04-22 08:27 37.11435 21.68057 35996 ft 433 kts 314°
2026-04-22 08:28 37.15820 21.62887 35982 ft 432 kts 314°
2026-04-22 08:28 37.20188 21.57729 35979 ft 432 kts 314°
2026-04-22 08:29 37.24541 21.52580 35969 ft 432 kts 314°
2026-04-22 08:29 37.28896 21.47420 35964 ft 432 kts 314°
2026-04-22 08:30 37.33270 21.42229 35965 ft 432 kts 314°
2026-04-22 08:30 37.37628 21.37049 35966 ft 432 kts 314°
2026-04-22 08:31 37.41978 21.31869 35970 ft 431 kts 314°
2026-04-22 08:32 37.48483 21.24106 35971 ft 429 kts 314°
2026-04-22 08:32 37.52799 21.18945 35972 ft 429 kts 314°
2026-04-22 08:33 37.57103 21.13790 35973 ft 429 kts 314°
2026-04-22 08:33 37.61448 21.08577 35973 ft 429 kts 313°
2026-04-22 08:34 37.65745 21.03411 35974 ft 429 kts 313°
2026-04-22 08:34 37.70071 20.98204 35980 ft 429 kts 314°
2026-04-22 08:35 37.74379 20.93010 35980 ft 427 kts 314°
2026-04-22 08:35 37.78648 20.87852 35986 ft 428 kts 314°
2026-04-22 08:36 37.82949 20.82647 35983 ft 427 kts 314°
2026-04-22 08:36 37.87248 20.77437 35981 ft 429 kts 313°
2026-04-22 08:37 37.91541 20.72224 35986 ft 428 kts 314°
2026-04-22 08:37 37.95821 20.67019 35981 ft 426 kts 314°
2026-04-22 08:38 38.00084 20.61826 35972 ft 425 kts 314°
2026-04-22 08:38 38.04318 20.56659 35973 ft 425 kts 314°
2026-04-22 08:39 38.08598 20.51427 35973 ft 425 kts 314°
2026-04-22 08:39 38.12857 20.46212 35979 ft 427 kts 314°
2026-04-22 08:40 38.17129 20.40972 35984 ft 426 kts 314°
2026-04-22 08:40 38.21362 20.35771 35973 ft 424 kts 314°
2026-04-22 08:41 38.25591 20.30565 35979 ft 424 kts 313°
2026-04-22 08:41 38.29837 20.25331 35973 ft 425 kts 313°
2026-04-22 08:42 38.34058 20.20118 35967 ft 425 kts 313°
2026-04-22 08:42 38.38288 20.14884 35964 ft 424 kts 313°
2026-04-22 08:43 38.42510 20.09652 35969 ft 423 kts 313°
2026-04-22 08:43 38.46720 20.04426 35960 ft 422 kts 313°
2026-04-22 08:44 38.50903 19.99225 35963 ft 422 kts 313°
2026-04-22 08:44 38.55126 19.93964 35963 ft 423 kts 313°
2026-04-22 08:45 38.59344 19.88701 35961 ft 424 kts 313°
2026-04-22 08:45 38.63528 19.83470 35964 ft 423 kts 313°
2026-04-22 08:46 38.67733 19.78206 35961 ft 423 kts 313°
2026-04-22 08:46 38.71918 19.72956 35966 ft 422 kts 313°
2026-04-22 08:47 38.76109 19.67691 35962 ft 423 kts 313°
2026-04-22 08:47 38.80285 19.62434 35960 ft 423 kts 313°
2026-04-22 08:48 38.84473 19.57154 35959 ft 421 kts 313°
2026-04-22 08:48 38.88655 19.51871 35953 ft 422 kts 313°
2026-04-22 08:49 38.92818 19.46603 35952 ft 421 kts 313°
2026-04-22 08:49 38.96959 19.41355 35949 ft 421 kts 313°
2026-04-22 08:50 39.01127 19.36063 35947 ft 422 kts 313°
2026-04-22 08:50 39.05268 19.30796 35958 ft 420 kts 312°
2026-04-22 08:51 39.09440 19.25479 35957 ft 420 kts 312°
2026-04-22 08:51 39.13577 19.20199 35960 ft 421 kts 312°
2026-04-22 08:52 39.17736 19.14882 35957 ft 420 kts 312°
2026-04-22 08:52 39.21893 19.09557 35955 ft 420 kts 312°
2026-04-22 08:53 39.26018 19.04263 35958 ft 421 kts 312°
2026-04-22 08:53 39.30028 18.98809 35964 ft 418 kts 308°
2026-04-22 08:54 39.33749 18.93024 35957 ft 417 kts 307°
2026-04-22 08:54 39.37412 18.87293 35961 ft 418 kts 307°
2026-04-22 08:55 39.41111 18.81479 35963 ft 416 kts 307°
2026-04-22 08:55 39.44783 18.75693 35976 ft 417 kts 307°
2026-04-22 08:56 39.48430 18.69932 35978 ft 417 kts 307°
2026-04-22 08:56 39.52104 18.64115 35984 ft 416 kts 307°
2026-04-22 08:57 39.55735 18.58356 35982 ft 415 kts 307°
2026-04-22 08:57 39.59381 18.52562 35986 ft 417 kts 307°
2026-04-22 08:58 39.63038 18.46738 35988 ft 415 kts 307°
2026-04-22 08:58 39.66677 18.40934 35991 ft 417 kts 307°
2026-04-22 08:59 39.70323 18.35106 35992 ft 416 kts 307°
2026-04-22 08:59 39.73958 18.29286 36006 ft 416 kts 306°
2026-04-22 09:00 39.77605 18.23435 36005 ft 416 kts 307°
2026-04-22 09:00 39.81229 18.17612 36003 ft 415 kts 306°
2026-04-22 09:01 39.84849 18.11783 36006 ft 415 kts 307°
2026-04-22 09:01 39.88457 18.05963 36009 ft 414 kts 306°
2026-04-22 09:02 39.92050 18.00156 36009 ft 414 kts 306°
2026-04-22 09:02 39.95654 17.94319 36011 ft 415 kts 306°
2026-04-22 09:03 39.99270 17.88454 36011 ft 415 kts 306°
2026-04-22 09:03 40.02875 17.82596 36011 ft 414 kts 306°
2026-04-22 09:04 40.06467 17.76748 36007 ft 414 kts 306°
2026-04-22 09:04 40.10049 17.70904 36010 ft 414 kts 306°
2026-04-22 09:05 40.13649 17.65021 36019 ft 413 kts 306°
2026-04-22 09:05 40.17219 17.59175 36020 ft 412 kts 306°
2026-04-22 09:06 40.20795 17.53307 36013 ft 412 kts 306°
2026-04-22 09:06 40.24352 17.47462 36018 ft 411 kts 306°
2026-04-22 09:07 40.27910 17.41602 36018 ft 412 kts 307°
2026-04-22 09:07 40.31472 17.35726 36007 ft 410 kts 307°
2026-04-22 09:08 40.35008 17.29881 36015 ft 411 kts 306°
2026-04-22 09:08 40.38542 17.24028 36013 ft 411 kts 306°
2026-04-22 09:09 40.42088 17.18145 36011 ft 411 kts 306°
2026-04-22 09:09 40.45646 17.12230 36011 ft 410 kts 306°
2026-04-22 09:10 40.49159 17.06381 36013 ft 410 kts 306°
2026-04-22 09:10 40.52694 17.00481 36014 ft 410 kts 306°
2026-04-22 09:11 40.56211 16.94602 36012 ft 408 kts 306°
2026-04-22 09:11 40.59697 16.88763 36016 ft 409 kts 306°
2026-04-22 09:12 40.63203 16.82878 36016 ft 408 kts 306°
2026-04-22 09:12 40.66720 16.76966 36021 ft 410 kts 306°
2026-04-22 09:13 40.70209 16.71087 36018 ft 408 kts 306°
2026-04-22 09:13 40.73696 16.65202 36013 ft 409 kts 306°
2026-04-22 09:14 40.77170 16.59329 36020 ft 407 kts 306°
2026-04-22 09:14 40.80667 16.53403 36015 ft 408 kts 306°
2026-04-22 09:15 40.84148 16.47494 36015 ft 408 kts 306°
2026-04-22 09:15 40.87619 16.41591 36016 ft 407 kts 306°
2026-04-22 09:16 40.91072 16.35708 36009 ft 407 kts 306°
2026-04-22 09:16 40.94560 16.29753 36023 ft 407 kts 306°
2026-04-22 09:17 40.98013 16.23847 36017 ft 407 kts 306°
2026-04-22 09:17 41.01444 16.17966 36019 ft 408 kts 306°
2026-04-22 09:18 41.04924 16.11990 36023 ft 406 kts 306°
2026-04-22 09:18 41.08344 16.06107 36020 ft 405 kts 306°
2026-04-22 09:19 41.11789 16.00167 36038 ft 406 kts 306°
2026-04-22 09:19 41.15216 15.94250 36034 ft 405 kts 306°
2026-04-22 09:20 41.18645 15.88315 36030 ft 404 kts 306°
2026-04-22 09:20 41.22060 15.82395 36031 ft 404 kts 306°
2026-04-22 09:21 41.25467 15.76475 36031 ft 404 kts 306°
2026-04-22 09:21 41.28889 15.70520 36032 ft 404 kts 306°
2026-04-22 09:22 41.32268 15.64627 36030 ft 403 kts 306°
2026-04-22 09:22 41.35669 15.58686 36033 ft 402 kts 306°
2026-04-22 09:23 41.39038 15.52787 36038 ft 403 kts 306°
2026-04-22 09:23 41.42416 15.46862 36035 ft 402 kts 306°
2026-04-22 09:24 41.45786 15.40940 36032 ft 401 kts 306°
2026-04-22 09:24 41.49139 15.35035 36027 ft 400 kts 306°
2026-04-22 09:25 41.52489 15.29124 36042 ft 400 kts 306°
2026-04-22 09:25 41.55829 15.23221 36041 ft 399 kts 306°
2026-04-22 09:26 41.59170 15.17303 36036 ft 400 kts 306°
2026-04-22 09:26 41.62519 15.11360 36038 ft 398 kts 306°
2026-04-22 09:27 41.65860 15.05420 36032 ft 399 kts 306°
2026-04-22 09:27 41.69178 14.99508 36029 ft 398 kts 306°
2026-04-22 09:28 41.72492 14.93592 36029 ft 400 kts 306°
2026-04-22 09:28 41.75801 14.87675 36035 ft 398 kts 306°
2026-04-22 09:29 41.79111 14.81743 36044 ft 398 kts 306°
2026-04-22 09:29 41.82418 14.75807 36028 ft 396 kts 306°
2026-04-22 09:30 41.85707 14.69890 36024 ft 396 kts 306°
2026-04-22 09:30 41.88999 14.63956 36047 ft 396 kts 306°
2026-04-22 09:31 41.92256 14.58074 36058 ft 397 kts 306°
2026-04-22 09:31 41.95542 14.52127 36046 ft 395 kts 306°
2026-04-22 09:32 41.98808 14.46205 36032 ft 395 kts 306°
2026-04-22 09:32 42.02076 14.40268 36045 ft 397 kts 306°
2026-04-22 09:33 42.05316 14.34372 36037 ft 393 kts 305°
2026-04-22 09:33 42.08574 14.28429 36061 ft 393 kts 305°
2026-04-22 09:34 42.11825 14.22489 36075 ft 393 kts 305°
2026-04-22 09:34 42.15063 14.16559 36065 ft 394 kts 306°
2026-04-22 09:35 42.19818 14.07624 36066 ft 393 kts 304°
2026-04-22 09:35 42.22934 14.01619 36078 ft 394 kts 304°
2026-04-22 09:36 42.26052 13.95609 36084 ft 392 kts 305°
2026-04-22 09:36 42.29176 13.89580 36081 ft 393 kts 305°
2026-04-22 09:37 42.32310 13.83521 36084 ft 394 kts 304°
2026-04-22 09:37 42.35411 13.77516 36063 ft 391 kts 304°
2026-04-22 09:38 42.38516 13.71491 36044 ft 392 kts 304°
2026-04-22 09:38 42.41638 13.65421 36077 ft 394 kts 305°
2026-04-22 09:39 42.44735 13.59388 36031 ft 390 kts 305°
2026-04-22 09:39 42.47821 13.53363 36047 ft 391 kts 305°
2026-04-22 09:40 42.50921 13.47301 36005 ft 390 kts 305°
2026-04-22 09:40 42.53979 13.41307 36020 ft 392 kts 305°
2026-04-22 09:41 42.57077 13.35221 36021 ft 391 kts 305°
2026-04-22 09:41 42.60110 13.29254 36026 ft 390 kts 304°
2026-04-22 09:42 42.63178 13.23204 36036 ft 392 kts 304°
2026-04-22 09:42 42.66268 13.17099 36045 ft 391 kts 304°
2026-04-22 09:43 42.69308 13.11081 36015 ft 389 kts 304°
2026-04-22 09:43 42.72362 13.05022 36029 ft 389 kts 304°
2026-04-22 09:44 42.75418 12.98947 36044 ft 389 kts 305°
2026-04-22 09:44 42.78464 12.92878 36054 ft 388 kts 305°
2026-04-22 09:45 42.81496 12.86827 36054 ft 386 kts 304°
2026-04-22 09:45 42.84536 12.80748 36069 ft 391 kts 304°
2026-04-22 09:46 42.87563 12.74681 36055 ft 388 kts 304°
2026-04-22 09:46 42.90601 12.68581 36072 ft 390 kts 304°
2026-04-22 09:47 42.93628 12.62489 36059 ft 389 kts 305°
2026-04-22 09:47 42.96650 12.56395 36053 ft 389 kts 305°
2026-04-22 09:48 42.99678 12.50278 36040 ft 388 kts 304°
2026-04-22 09:48 43.02707 12.44145 36060 ft 390 kts 305°
2026-04-22 09:49 43.05717 12.38037 36064 ft 390 kts 304°
2026-04-22 09:49 43.08733 12.31906 36080 ft 389 kts 304°
2026-04-22 09:50 43.11721 12.25818 36082 ft 391 kts 304°
2026-04-22 09:50 43.14733 12.19667 36094 ft 390 kts 304°
2026-04-22 09:51 43.17753 12.13490 36080 ft 390 kts 304°
2026-04-22 09:51 43.20752 12.07342 36067 ft 391 kts 304°
2026-04-22 09:52 43.23769 12.01142 36092 ft 390 kts 304°
2026-04-22 09:52 43.26753 11.94999 36089 ft 390 kts 304°
2026-04-22 09:53 43.29796 11.88896 36100 ft 389 kts 307°
2026-04-22 09:53 43.32966 11.82897 36092 ft 389 kts 307°
2026-04-22 09:54 43.36137 11.76864 36094 ft 390 kts 307°
2026-04-22 09:54 43.39284 11.70851 36101 ft 388 kts 306°
2026-04-22 09:55 43.42459 11.64765 36082 ft 393 kts 306°
2026-04-22 09:55 43.45605 11.58721 36064 ft 388 kts 306°
2026-04-22 09:56 43.48763 11.52638 36079 ft 392 kts 306°
2026-04-22 09:56 43.51922 11.46542 36082 ft 391 kts 306°
2026-04-22 09:57 43.55059 11.40474 36078 ft 389 kts 306°
2026-04-22 09:57 43.58192 11.34403 36069 ft 389 kts 305°
2026-04-22 09:58 43.61305 11.28355 36080 ft 390 kts 306°
2026-04-22 09:58 43.64430 11.22273 36092 ft 390 kts 306°
2026-04-22 09:59 43.67536 11.16216 36097 ft 388 kts 305°
2026-04-22 09:59 43.70647 11.10135 36089 ft 389 kts 306°
2026-04-22 10:00 43.73759 11.04043 36088 ft 389 kts 305°
2026-04-22 10:00 43.76873 10.97930 36082 ft 389 kts 305°
2026-04-22 10:01 43.79950 10.91879 36105 ft 389 kts 306°
2026-04-22 10:01 43.83052 10.85767 36083 ft 387 kts 306°
2026-04-22 10:02 43.86138 10.79673 36089 ft 388 kts 306°
2026-04-22 10:02 43.89206 10.73602 36085 ft 387 kts 306°
2026-04-22 10:03 43.92302 10.67462 36082 ft 387 kts 305°
2026-04-22 10:03 43.95406 10.61293 36083 ft 389 kts 306°
2026-04-22 10:04 43.98478 10.55176 36071 ft 387 kts 306°
2026-04-22 10:04 44.01566 10.49014 36074 ft 390 kts 306°
2026-04-22 10:05 44.04653 10.42840 36073 ft 391 kts 305°
2026-04-22 10:05 44.07721 10.36691 36071 ft 390 kts 305°
2026-04-22 10:06 44.10735 10.30639 36093 ft 390 kts 305°
2026-04-22 10:06 44.13793 10.24484 36101 ft 390 kts 305°
2026-04-22 10:07 44.16858 10.18303 36105 ft 390 kts 306°
2026-04-22 10:07 44.19947 10.12060 36107 ft 397 kts 306°
2026-04-22 10:08 44.22749 10.06388 36106 ft 395 kts 306°
2026-04-22 10:08 44.26157 10.00667 36107 ft 399 kts 310°
2026-04-22 10:09 44.29504 9.95218 36108 ft 396 kts 310°
2026-04-22 10:09 44.33128 9.89252 36099 ft 396 kts 310°
2026-04-22 10:10 44.36644 9.83427 36104 ft 397 kts 310°
2026-04-22 10:10 44.40191 9.77522 36100 ft 399 kts 310°
2026-04-22 10:11 44.43678 9.71700 36104 ft 396 kts 310°
2026-04-22 10:11 44.47207 9.65791 36095 ft 399 kts 310°
2026-04-22 10:12 44.50711 9.59912 36079 ft 397 kts 310°
2026-04-22 10:12 44.54228 9.53998 36065 ft 398 kts 310°
2026-04-22 10:13 44.57682 9.48177 36075 ft 397 kts 310°
2026-04-22 10:13 44.61195 9.42244 36084 ft 399 kts 310°
2026-04-22 10:14 44.64681 9.36345 36081 ft 398 kts 309°
2026-04-22 10:14 44.68166 9.30435 36090 ft 397 kts 310°
2026-04-22 10:15 44.71588 9.24621 36100 ft 400 kts 309°
2026-04-22 10:15 44.75059 9.18710 36111 ft 399 kts 309°
2026-04-22 10:16 44.78527 9.12793 36115 ft 398 kts 309°
2026-04-22 10:16 44.82032 9.06799 36108 ft 400 kts 309°
2026-04-22 10:17 44.85537 9.00793 36114 ft 398 kts 309°
2026-04-22 10:17 44.89017 8.94818 36121 ft 398 kts 309°
2026-04-22 10:18 44.92511 8.88805 36134 ft 399 kts 309°
2026-04-22 10:18 44.95992 8.82802 36135 ft 400 kts 309°
2026-04-22 10:19 44.99492 8.76754 36139 ft 399 kts 309°
2026-04-22 10:19 45.02999 8.70679 36148 ft 401 kts 309°
2026-04-22 10:20 45.06474 8.64649 36135 ft 400 kts 309°
2026-04-22 10:20 45.09967 8.58576 36127 ft 401 kts 309°
2026-04-22 10:21 45.13445 8.52511 36155 ft 403 kts 309°
2026-04-22 10:21 45.16960 8.46373 36163 ft 402 kts 309°
2026-04-22 10:22 45.20385 8.40378 36160 ft 401 kts 309°
2026-04-22 10:22 45.23734 8.34503 36170 ft 404 kts 308°
2026-04-22 10:23 45.27246 8.28328 36169 ft 402 kts 308°
2026-04-22 10:23 45.30663 8.22309 36158 ft 404 kts 309°
2026-04-22 10:24 45.33272 8.17704 36161 ft 404 kts 309°